GFSWCAN_925_rhum_000.txt.gz
RH
77 75 70 71 69 65 63 59 55 58 57 55 57 58 58 45 41 40 58 62 57 88 77 67 59 71 74 73 81 76 73 78 86 73 78 87 92 84 76 68 87 90 92 98 97 88 53 49 48 59 59 56 72 77
78 76 76 74 71 69 66 59 55 52 49 50 48 52 58 51 43 33 59 58 58 78 74 65 64 62 56 50 82 77 63 73 80 86 91 97 96 94 89 76 69 70 64 75 67 68 49 50 54 51 57 56 72 77
79 80 79 76 74 70 66 61 55 46 45 44 47 60 58 46 46 38 54 55 46 90 78 72 71 59 56 50 45 67 81 73 76 77 96 97 75 97 92 94 79 70 65 78 66 48 61 60 54 59 64 66 67 79
81 81 80 78 75 71 69 66 56 47 44 41 46 59 55 50 50 46 44 49 42 86 92 77 60 62 62 55 44 40 72 77 88 88 98 98 80 84 90 79 84 73 69 69 76 67 64 62 70 66 69 77 79 81
84 83 84 83 76 76 72 64 58 53 46 42 48 57 56 53 49 47 59 70 50 54 86 94 70 66 70 56 54 59 64 79 86 91 94 86 96 95 97 96 96 76 68 79 75 52 51 51 45 64 78 83 86 82
93 92 87 87 86 72 69 66 61 55 48 43 41 53 56 50 39 26 61 60 56 51 86 85 84 81 78 71 75 82 83 87 86 84 92 92 78 87 98 97 72 65 66 57 55 50 61 57 72 71 78 85 84 72
95 91 91 84 77 76 74 69 66 63 57 50 40 39 46 43 25 64 59 80 66 47 91 98 96 85 84 89 98 95 95 97 88 97 97 98 100 92 96 97 55 61 65 67 70 71 70 78 74 78 77 73 50 42
99 95 92 90 79 76 77 75 72 71 68 68 63 58 54 53 58 72 77 67 60 58 89 94 97 92 90 100 100 99 100 96 98 98 98 99 99 99 100 87 77 72 72 72 70 76 68 76 66 52 48 46 52 58
91 89 88 85 80 75 78 76 75 73 67 69 67 57 43 52 97 90 79 68 58 59 98 99 85 79 93 100 100 100 99 100 96 100 100 98 100 99 94 91 87 82 81 80 84 82 74 57 49 52 56 70 86 94
84 89 85 83 83 80 77 77 82 76 69 63 52 62 100 100 99 75 61 91 96 98 99 100 98 99 95 100 100 97 100 96 95 95 99 100 100 89 88 85 88 89 85 80 76 69 68 81 84 84 87 83 90 96
100 100 99 97 94 87 82 88 88 79 67 69 99 100 99 90 79 96 100 96 93 97 99 100 100 99 94 99 100 100 100 100 98 91 100 99 98 93 69 78 82 83 81 79 77 79 79 84 91 95 97 82 86 89
95 96 98 100 100 100 98 98 86 72 87 89 92 89 77 89 100 94 100 100 91 90 100 100 100 98 100 96 99 100 99 100 96 97 100 98 90 66 75 83 85 82 80 83 89 94 95 97 96 95 92 80 70 63
84 82 81 82 87 95 96 90 81 81 74 73 80 91 86 98 98 91 98 100 100 100 100 100 100 100 98 96 100 100 100 99 99 100 99 99 79 87 89 77 70 74 78 80 83 84 76 56 44 44 50 48 53 53
76 74 74 76 74 74 78 82 79 70 63 94 100 98 99 98 99 99 99 99 100 100 100 100 100 100 100 100 100 100 100 100 99 99 97 100 100 95 61 65 72 80 90 88 66 52 51 49 52 57 59 66 73 72
74 71 67 71 73 72 69 65 60 55 70 90 88 97 98 99 99 99 100 100 100 100 100 100 100 99 100 99 99 98 97 97 96 96 99 99 98 89 61 66 79 85 86 70 61 61 61 63 66 66 67 72 74 76
64 64 72 66 67 67 60 54 54 68 78 88 93 98 99 98 100 100 100 100 99 100 100 100 99 98 99 99 97 97 96 96 96 100 100 99 85 78 85 69 68 80 81 81 67 64 73 72 74 76 72 71 75 78
61 82 74 62 57 63 58 60 66 88 88 78 99 100 98 98 100 100 100 97 100 99 99 98 97 94 96 98 98 99 98 98 100 99 99 90 86 70 83 86 78 70 72 70 70 69 72 76 80 80 86 80 77 76
84 72 68 54 52 56 72 74 81 83 94 99 98 100 99 100 100 100 100 100 98 93 97 98 92 100 98 96 98 99 99 100 99 96 97 86 72 69 64 66 62 62 66 71 74 78 81 85 94 99 94 92 91 93
73 64 56 49 57 70 90 87 82 97 98 100 99 99 99 99 97 99 100 100 99 94 94 96 93 98 98 97 98 95 99 98 99 98 94 78 75 73 72 71 73 76 81 89 96 100 100 100 100 100 100 100 98 96
57 50 46 47 51 73 88 95 76 87 79 91 97 98 98 97 97 97 98 100 99 96 90 93 93 93 94 94 96 97 96 96 97 96 95 95 86 87 93 93 96 96 100 98 98 96 96 97 98 95 92 89 91 92
58 61 60 53 82 80 96 100 97 96 96 97 98 96 98 96 95 95 96 99 94 94 92 96 99 100 99 100 94 97 98 86 95 94 94 99 100 97 99 98 98 100 98 94 91 91 94 96 99 86 86 88 100 100
72 71 76 80 80 82 94 97 98 96 89 99 98 96 97 97 96 95 96 94 94 95 98 100 99 99 98 99 99 99 98 99 100 100 96 96 98 98 98 100 100 97 96 100 100 97 90 89 85 85 84 87 92 95
69 68 68 68 83 90 93 93 92 98 74 95 99 99 98 98 98 94 97 94 98 99 99 99 99 99 98 100 98 98 96 92 94 100 100 100 100 100 100 97 87 90 95 96 95 94 89 85 82 87 87 88 90 90
72 93 83 86 81 92 92 89 90 97 96 100 100 96 97 98 98 98 97 92 98 97 96 98 94 94 97 96 93 93 97 94 96 96 99 97 96 98 98 98 87 81 85 85 85 88 87 86 85 90 91 95 97 100
83 91 85 94 87 98 100 96 87 85 90 99 98 100 97 98 97 97 96 97 98 97 97 98 98 95 94 95 95 97 96 100 95 93 96 82 85 79 81 77 83 87 74 83 94 98 95 90 91 94 95 99 100 100
82 85 92 88 90 95 100 99 100 90 96 97 97 97 97 97 99 97 97 97 97 97 97 97 96 94 91 93 92 93 87 92 86 96 100 82 73 73 87 94 95 78 78 94 100 100 100 99 98 97 98 98 100 98
94 93 94 89 91 98 97 97 95 97 97 96 97 96 96 96 96 96 96 96 96 96 96 97 93 92 92 86 83 90 94 90 87 87 86 82 82 82 81 89 96 85 88 94 95 98 100 100 100 100 100 100 100 100
96 96 100 93 98 97 97 97 98 97 97 97 97 96 96 95 95 95 96 96 96 96 95 95 95 86 79 74 79 97 96 87 85 83 80 86 91 95 88 89 82 83 90 88 85 85 95 100 100 100 100 100 100 100
98 97 97 97 96 96 97 97 97 98 98 98 96 95 95 92 97 97 95 97 96 94 94 95 99 94 93 89 80 75 76 82 70 97 100 100 93 89 95 88 82 85 89 84 82 83 94 100 99 96 96 96 98 100
92 98 96 97 98 98 95 99 98 97 98 96 94 92 91 96 97 97 97 96 94 95 96 95 96 94 94 86 91 92 93 90 91 91 100 100 100 100 94 85 83 85 88 92 92 82 89 92 88 86 88 91 92 94
99 98 97 96 98 94 98 96 88 98 98 97 95 95 96 98 96 96 95 96 96 96 92 89 90 92 88 90 91 95 93 95 90 88 88 93 98 95 91 90 87 91 94 99 91 91 98 97 96 95 96 98 99 100
96 99 100 96 96 96 97 100 100 100 96 96 97 97 99 97 100 97 96 96 76 66 72 75 83 91 94 94 93 91 89 82 82 84 84 92 95 93 94 90 88 90 93 94 92 91 99 100 98 99 100 100 100 100
99 100 99 100 100 100 99 93 97 100 95 96 98 99 99 97 98 97 98 95 90 88 82 75 77 93 95 94 88 87 84 89 91 93 91 96 95 96 97 90 89 89 89 90 93 95 96 98 98 100 100 100 100 100

GFSWCAN_925_rhum_003.txt.gz
RH
99 92 82 68 64 68 67 74 72 69 67 64 60 54 52 50 50 51 61 58 53 85 80 69 64 71 73 73 79 76 72 76 81 79 82 77 82 74 66 62 84 71 80 82 83 73 57 43 49 57 53 53 56 65
82 77 76 73 70 68 70 69 68 66 62 60 61 53 48 47 49 48 68 72 57 77 78 68 68 62 58 53 76 81 64 73 74 83 82 92 97 97 82 69 71 67 63 67 61 62 47 45 57 50 55 52 53 64
78 77 75 70 69 68 67 61 58 58 56 62 60 57 45 45 43 44 53 62 53 91 79 71 72 63 57 56 49 68 74 72 72 73 90 92 80 91 91 85 75 68 60 67 63 46 54 53 49 51 48 53 54 59
78 80 80 75 71 66 62 59 52 55 61 64 63 58 51 46 46 37 49 52 53 88 100 84 66 70 69 59 50 46 70 74 83 77 94 97 86 79 87 74 81 68 66 67 69 60 56 50 56 54 54 62 66 66
85 85 80 76 74 71 64 58 54 50 62 73 65 56 55 53 43 34 46 62 51 64 93 94 72 73 75 61 61 60 62 74 80 88 97 88 89 93 94 91 85 69 65 74 72 48 48 48 41 49 60 60 63 73
87 84 81 80 76 70 66 62 58 47 52 64 64 64 57 51 45 42 72 68 52 54 84 89 86 84 79 73 80 87 82 85 82 78 92 83 82 81 99 88 62 59 61 54 47 52 53 53 52 57 63 67 75 78
91 87 84 81 74 64 67 66 55 45 41 45 49 43 35 29 30 64 61 75 52 43 90 96 97 84 88 92 98 95 93 93 85 96 98 97 98 80 98 85 57 66 61 61 64 66 69 68 67 76 73 54 46 45
96 94 87 82 74 73 68 65 68 70 66 60 55 48 42 40 54 73 71 60 51 53 85 92 94 93 90 99 96 96 99 94 97 97 97 98 98 96 99 85 80 74 72 74 79 73 73 63 49 48 46 50 60 71
94 90 89 89 74 68 66 74 73 73 68 61 48 38 36 51 95 84 70 61 50 51 92 94 84 83 93 100 99 97 95 99 94 100 100 93 100 98 93 85 81 81 86 80 66 55 53 55 55 60 66 78 94 97
92 94 94 87 80 71 72 76 72 67 64 51 44 63 100 100 94 64 54 86 93 96 98 99 93 99 93 100 100 98 100 99 98 98 98 100 100 77 66 73 80 83 78 76 75 70 77 83 83 83 90 92 96 98
100 100 100 100 94 76 76 80 74 64 56 57 99 100 96 81 67 93 98 96 94 96 98 100 100 100 94 100 100 100 100 100 97 90 99 99 99 73 75 85 81 80 83 82 80 82 84 94 96 97 98 99 96 93
96 99 100 100 100 96 87 83 72 63 83 86 89 82 71 86 92 92 99 100 94 94 100 100 100 98 100 94 98 100 98 100 94 98 100 100 83 61 79 84 86 86 88 91 94 95 95 94 94 97 97 96 90 75
91 91 89 93 98 95 88 79 74 73 69 68 78 89 85 97 96 85 98 97 100 100 100 100 100 100 98 97 100 100 100 99 97 100 99 94 69 97 85 77 82 84 84 82 84 87 77 67 62 67 70 73 76 78
69 74 80 83 81 83 83 78 68 60 63 93 96 98 95 98 100 99 99 100 100 100 100 100 100 100 100 100 100 100 99 99 100 99 95 97 100 93 73 71 85 87 90 74 56 60 61 62 66 66 69 72 78 79
59 58 60 70 74 74 77 69 55 52 68 90 89 99 98 100 99 100 100 100 100 99 100 100 100 97 100 98 99 98 97 96 94 93 99 99 97 65 57 61 66 77 80 70 62 63 65 69 72 74 77 78 79 78
58 55 63 64 68 62 53 49 51 66 78 91 98 99 99 98 100 100 100 100 99 100 100 100 99 99 98 97 97 96 94 93 93 99 99 98 99 98 82 65 70 76 82 79 70 70 74 76 83 86 84 90 93 97
54 75 60 56 57 53 46 51 63 83 89 91 99 100 100 100 100 100 100 100 99 99 100 98 97 96 96 97 98 95 92 91 100 99 97 92 89 78 79 80 78 66 71 72 74 80 86 90 92 96 99 100 100 100
75 61 49 45 46 47 65 69 80 84 98 99 98 99 99 100 100 100 100 99 96 92 93 98 87 98 98 95 98 93 96 99 98 96 91 84 72 66 64 67 65 71 86 93 98 100 100 100 98 97 97 90 88 86
60 46 39 41 50 63 90 88 80 96 99 99 98 98 98 98 96 97 99 99 99 94 93 90 91 95 95 92 98 99 96 97 97 95 88 91 85 82 83 86 94 99 99 99 99 98 99 98 94 88 86 88 88 89
30 28 30 50 47 70 90 96 73 85 87 92 96 96 96 96 97 96 97 99 98 92 87 91 90 87 90 91 91 93 92 92 93 92 94 96 98 98 100 100 100 99 95 92 91 88 86 85 87 91 94 92 95 98
33 42 41 45 69 87 91 97 97 97 92 94 98 94 94 93 92 93 94 95 92 89 83 97 100 100 96 100 100 99 99 91 89 88 92 97 98 95 95 100 96 92 89 91 88 88 92 91 93 96 95 92 91 99
69 66 68 68 80 85 95 99 98 96 88 98 96 93 94 92 92 93 95 94 93 96 98 98 97 98 97 97 99 100 99 98 98 98 99 99 91 85 85 88 86 94 93 96 96 97 96 96 88 86 92 90 89 94
65 66 63 63 82 86 94 83 91 97 83 94 97 97 97 96 94 91 94 95 97 98 99 96 97 98 96 98 97 98 100 97 94 96 96 96 97 96 94 92 88 90 88 89 95 97 97 83 86 88 90 91 97 98
72 87 91 92 91 99 84 87 84 91 84 93 99 100 96 98 96 97 97 94 97 97 96 96 95 93 95 96 91 93 97 98 96 97 99 92 91 94 96 96 97 92 90 84 82 82 84 84 87 90 93 96 97 100
79 94 88 91 90 96 96 93 85 80 89 93 98 98 97 96 98 100 98 96 96 95 96 98 96 95 94 94 94 96 96 96 89 89 96 87 85 82 79 78 86 99 82 91 96 93 90 89 92 95 96 99 100 100
92 90 86 87 89 94 100 100 99 90 91 98 99 95 96 95 95 96 93 96 94 96 96 96 96 94 92 94 91 88 96 95 79 92 94 72 65 66 82 84 84 82 84 96 99 99 98 97 99 98 96 96 100 100
97 92 95 94 89 93 97 97 93 96 96 97 96 96 96 95 95 94 94 94 94 96 96 96 96 96 94 95 100 100 99 90 79 85 84 80 78 78 78 90 97 92 91 94 95 97 98 100 100 100 100 100 100 100
94 81 99 94 98 96 98 97 96 96 97 96 96 96 96 95 93 95 94 99 96 96 95 95 95 95 95 96 97 92 88 83 80 78 78 84 88 95 90 90 86 87 90 88 88 87 87 98 100 100 100 99 99 100
96 98 95 97 97 96 97 96 97 97 97 97 96 98 97 92 97 97 95 97 96 95 94 96 97 96 91 79 79 88 93 88 76 88 93 93 92 90 94 92 88 83 84 84 86 86 87 100 100 96 95 96 98 99
91 98 96 99 98 97 95 98 94 97 97 96 94 90 89 96 97 97 96 96 95 95 96 96 96 96 94 84 88 87 87 85 81 85 96 100 100 99 98 96 92 88 88 92 92 84 86 92 93 90 91 93 94 96
99 98 97 97 95 97 97 98 98 98 96 96 95 95 95 96 97 97 96 96 96 96 95 94 92 91 88 88 89 91 92 91 83 86 89 91 96 99 98 98 94 89 88 92 92 92 94 99 99 98 98 98 98 99
100 100 100 97 96 96 94 100 100 100 97 95 97 96 96 96 99 96 96 94 79 72 74 77 85 93 94 90 84 82 84 82 84 91 95 91 93 97 98 98 93 89 90 90 92 94 96 99 100 100 99 99 100 100
99 99 99 99 99 96 96 92 97 100 97 96 98 98 97 96 97 96 98 96 91 87 80 74 79 86 81 75 79 89 91 93 94 95 98 98 98 96 98 99 93 90 89 90 93 95 96 99 100 100 100 99 98 96

GFSWCAN_925_rhum_006.txt.gz
RH
81 81 98 95 97 99 97 87 74 58 52 54 57 61 65 62 50 69 78 52 53 48 55 51 45 51 55 49 61 59 55 60 63 85 88 65 84 54 46 43 58 56 68 86 71 91 76 28 40 48 34 40 38 38
86 98 100 97 86 83 71 61 55 53 58 62 64 65 64 57 51 63 71 62 54 56 62 69 69 68 54 37 47 54 48 51 50 65 80 83 94 93 70 60 51 53 48 48 44 38 33 32 34 33 39 41 38 40
85 86 87 77 77 82 80 74 72 72 70 66 64 60 59 54 49 60 74 56 63 72 61 56 59 67 67 71 62 44 54 50 53 58 76 89 100 77 96 62 56 49 45 53 52 32 32 31 30 31 32 37 34 33
90 91 85 83 79 75 75 74 74 72 68 64 59 55 53 50 54 56 68 56 60 72 100 72 72 68 78 72 62 58 55 63 56 48 83 96 96 58 78 59 65 49 49 48 48 37 34 32 34 34 33 36 40 39
85 85 86 76 71 71 72 76 85 75 67 64 58 50 51 51 53 60 55 53 54 67 90 81 70 76 74 64 59 58 51 49 53 77 98 87 69 74 79 71 65 47 42 55 51 28 37 33 32 37 43 42 44 50
89 86 80 75 73 68 64 68 80 81 66 65 58 50 50 51 52 46 84 63 62 72 73 95 74 72 73 67 63 63 57 58 54 60 89 62 65 66 95 65 40 43 42 42 42 42 44 43 45 54 57 60 57 54
88 83 79 76 72 68 57 55 65 67 74 77 72 66 58 56 42 48 59 83 66 59 79 94 83 70 81 71 79 72 74 73 63 73 90 77 74 59 94 71 61 60 57 57 57 58 53 58 58 50 47 48 53 56
84 81 76 77 75 74 69 69 74 71 58 54 52 49 45 46 46 66 60 59 56 60 64 91 91 92 78 93 95 84 94 77 84 89 92 93 87 82 83 71 64 59 59 61 56 57 63 49 47 50 52 58 71 87
84 81 76 69 71 70 58 71 67 62 56 48 42 39 43 54 86 82 64 63 57 60 72 93 99 96 78 96 92 90 83 100 81 100 93 84 99 96 78 70 67 71 73 69 55 51 53 61 63 70 78 88 95 98
84 82 81 80 82 70 63 67 65 57 42 35 26 64 92 99 81 55 62 69 78 82 84 100 88 99 80 100 100 97 98 100 98 97 95 99 97 65 70 74 70 67 62 63 69 71 71 71 78 92 96 97 97 97
100 98 92 85 67 60 60 59 57 51 40 52 94 98 87 65 68 74 83 82 76 98 91 94 97 97 86 96 100 98 99 97 99 89 91 98 98 74 78 78 76 75 69 65 66 70 78 94 95 96 96 91 84 84
99 99 99 98 92 79 74 62 54 50 74 78 80 72 66 72 78 96 99 95 92 94 99 99 100 95 99 84 95 95 100 99 95 88 99 98 82 82 87 90 88 86 86 82 83 88 84 76 74 83 88 88 85 72
91 94 94 92 91 90 77 67 68 69 70 65 74 94 79 97 100 100 99 100 99 100 100 100 100 100 96 86 100 100 100 100 84 99 92 86 78 96 92 87 81 73 68 66 66 64 54 56 66 74 81 80 79 77
79 87 87 89 86 80 80 74 60 60 59 90 100 100 100 100 100 100 100 100 100 100 100 100 100 100 100 100 100 100 100 99 98 98 97 95 100 100 96 77 70 66 87 55 52 64 73 74 79 80 84 86 87 94
60 67 70 78 87 89 77 64 55 56 80 88 90 100 100 100 100 100 100 100 100 98 100 100 100 91 100 100 100 100 100 97 88 84 99 99 98 91 69 63 59 77 86 67 66 78 80 79 85 95 96 97 96 96
48 50 64 63 60 57 68 67 63 78 93 99 100 99 100 100 100 100 100 100 99 100 100 100 100 100 99 100 100 100 97 88 91 98 98 94 86 70 56 58 69 72 68 75 75 81 92 96 99 99 100 100 100 99
38 66 53 57 56 53 48 51 64 80 91 100 100 100 100 100 100 100 100 100 98 100 100 100 100 100 100 96 96 91 96 99 100 98 97 95 84 76 75 77 82 72 73 79 87 96 99 100 99 92 78 68 75 78
66 61 51 45 43 47 61 64 79 79 96 98 97 100 100 100 100 100 100 99 92 84 84 94 82 95 96 92 88 92 96 100 97 98 96 88 72 66 64 65 75 84 94 99 99 98 96 88 74 64 64 65 63 64
44 42 46 43 43 59 79 83 72 88 97 99 100 99 100 99 93 95 99 97 88 82 82 80 94 79 86 82 100 98 100 94 95 84 82 83 82 81 84 92 96 94 91 88 84 79 77 73 70 68 68 68 70 67
23 24 33 49 46 73 92 91 74 73 86 92 92 92 91 91 97 100 100 92 79 79 84 88 87 86 86 84 82 81 82 81 78 84 88 87 88 92 95 92 91 91 84 74 70 70 66 66 68 72 80 78 79 80
24 34 36 46 71 85 86 86 78 80 77 82 90 85 86 94 94 98 99 89 96 81 74 94 96 94 97 98 98 94 92 85 76 82 82 88 90 86 83 79 74 72 74 76 72 73 78 72 73 78 86 88 92 90
59 53 51 53 79 87 85 90 83 76 68 82 81 78 88 94 95 95 87 91 90 94 94 95 94 96 92 92 95 96 95 94 94 93 94 92 80 76 76 76 76 78 76 78 78 82 80 78 85 88 90 94 92 88
60 55 62 70 85 87 89 76 88 86 84 92 86 84 88 90 91 80 76 84 93 96 98 93 94 97 93 97 97 97 98 97 89 91 94 93 93 92 80 76 79 76 71 70 75 77 83 91 90 96 95 93 92 89
61 81 88 90 88 98 83 84 73 76 74 88 96 91 93 93 84 84 84 84 87 82 88 92 89 86 91 93 90 93 95 96 93 94 96 93 88 80 79 79 82 84 85 83 86 91 91 95 96 95 97 94 91 89
82 89 80 87 84 89 91 88 78 71 81 80 92 83 87 88 87 86 85 82 82 87 87 90 92 91 91 92 93 94 98 97 92 87 90 84 78 72 69 73 84 87 94 91 91 93 93 97 97 98 96 94 93 92
91 92 84 85 90 88 95 97 94 88 82 88 91 87 90 87 86 88 80 86 85 89 91 90 91 90 89 92 90 91 94 88 82 81 80 75 73 73 69 68 67 80 99 100 100 98 94 94 96 98 94 92 92 96
85 86 84 86 84 85 91 90 88 88 90 90 88 89 86 87 87 84 78 84 84 94 98 99 96 90 89 92 97 99 100 100 91 89 90 90 91 92 91 87 84 92 100 100 100 100 100 100 99 98 96 93 95 100
88 77 91 89 89 87 93 91 90 90 88 85 86 89 89 88 88 83 82 93 98 100 100 100 100 100 98 98 100 100 100 93 75 87 98 100 100 100 100 100 99 80 85 100 100 100 100 100 100 99 97 98 100 100
90 92 89 97 94 90 90 89 89 87 86 88 90 89 89 82 88 88 93 97 100 97 94 94 98 100 100 93 90 90 99 94 74 66 66 72 76 89 100 100 100 100 100 100 100 100 100 100 100 100 100 100 100 100
88 94 89 94 93 90 89 90 87 93 87 88 84 81 80 86 95 100 98 97 95 95 98 99 100 97 97 91 94 99 94 96 95 89 79 79 86 100 100 100 100 100 100 100 100 100 100 100 100 100 100 100 100 100
92 94 90 86 85 90 93 94 94 94 90 89 89 88 87 87 94 100 100 100 100 100 97 96 99 100 94 92 87 82 87 96 78 82 89 95 100 100 100 100 100 100 100 100 100 100 100 100 100 100 100 100 100 100
92 98 99 90 89 91 88 92 94 90 88 88 90 87 88 86 87 88 99 100 96 93 84 92 91 98 86 74 72 76 83 86 97 92 94 98 100 100 100 100 100 100 100 100 100 100 100 100 100 100 100 100 100 100
92 91 86 88 90 90 91 90 85 87 89 89 90 88 88 87 90 90 97 95 98 99 96 87 84 83 77 75 75 73 78 83 86 92 97 98 98 98 95 100 100 100 97 100 100 100 100 100 100 100 100 100 100 100

GFSWCAN_925_rhum_009.txt.gz
RH
82 72 67 67 77 82 80 81 92 97 85 88 98 98 88 64 65 90 62 66 28 26 35 27 20 26 25 28 58 50 51 54 57 74 81 52 74 48 42 34 50 50 62 80 64 90 77 20 28 38 36 27 25 27
85 94 99 98 91 79 73 97 95 78 97 100 99 90 67 62 62 69 58 67 50 28 54 53 55 55 30 26 31 48 31 45 45 47 68 72 90 93 56 58 38 48 39 44 37 36 28 23 23 22 27 30 29 29
79 76 79 86 89 99 90 94 100 100 99 85 70 66 62 61 59 69 58 62 45 57 53 50 51 56 56 60 63 39 42 35 42 47 70 80 96 70 93 55 44 36 34 42 41 22 23 22 22 23 24 28 28 29
94 99 100 100 99 99 99 98 95 80 67 64 62 59 58 60 55 72 61 69 38 58 96 65 59 57 65 59 55 54 42 51 46 44 77 94 94 46 71 50 47 38 37 34 36 26 22 23 24 28 29 31 34 34
92 95 94 91 92 93 86 77 73 68 64 61 58 60 65 64 55 77 73 76 63 41 88 73 57 63 56 55 50 49 48 46 47 72 90 80 57 62 67 59 50 35 28 48 45 30 37 31 33 38 42 45 48 48
99 92 85 86 88 90 91 87 76 70 68 67 66 68 68 66 59 64 69 73 57 58 69 81 62 60 54 48 45 43 42 41 38 57 84 49 51 52 89 52 36 38 40 44 42 41 43 41 42 43 46 44 42 43
87 83 77 71 76 86 87 90 74 70 70 67 65 65 65 71 63 62 51 79 61 54 76 84 80 64 63 54 60 55 53 53 41 54 80 64 57 49 94 56 49 48 48 50 49 51 49 48 50 45 49 55 66 69
93 92 88 87 85 86 89 99 99 87 73 69 64 64 75 67 64 69 83 63 57 58 60 85 91 86 64 83 86 62 76 58 66 71 78 78 68 72 71 57 52 51 50 54 48 48 47 46 48 54 63 73 88 93
83 83 81 78 74 70 67 71 81 75 73 74 74 66 60 64 63 81 76 53 65 79 69 88 96 96 63 80 81 80 67 94 69 94 83 71 90 87 66 60 58 59 60 58 50 48 50 58 64 71 75 82 87 82
86 83 77 72 60 57 58 56 52 47 45 52 55 58 74 89 67 59 64 82 75 69 68 99 76 97 68 97 99 88 91 93 95 88 71 94 83 59 60 60 57 55 51 54 65 66 64 70 76 79 82 83 73 66
88 80 74 67 58 52 49 45 41 44 35 64 84 97 87 61 58 72 79 73 62 87 82 86 88 89 78 91 99 97 97 95 99 86 86 96 94 70 64 66 67 61 56 57 58 62 66 72 76 83 73 72 86 84
90 88 85 73 64 61 51 39 36 40 84 72 70 79 75 64 79 95 99 94 87 91 97 97 93 84 92 70 86 92 98 92 94 73 97 84 84 78 84 86 75 65 63 64 66 66 63 65 67 76 68 70 87 76
87 83 82 81 72 66 61 60 60 60 64 70 69 93 69 95 100 94 100 99 98 100 99 99 99 97 86 79 98 89 99 98 73 97 82 80 82 89 89 74 66 58 54 54 51 48 50 61 78 78 87 93 90 78
87 85 80 76 76 73 69 64 54 51 59 88 100 100 100 100 100 100 100 100 100 100 100 98 100 99 100 100 100 100 100 95 100 100 93 89 96 97 87 65 56 58 73 49 53 66 75 94 100 99 100 100 100 98
68 77 82 84 78 69 70 68 59 60 81 94 90 100 100 100 100 100 100 100 100 98 99 97 96 85 100 100 99 100 100 99 94 96 97 98 97 95 77 62 62 63 88 65 68 86 98 99 100 99 98 98 99 98
54 58 65 62 73 79 66 71 72 82 94 96 99 100 100 100 100 100 100 100 98 100 97 91 100 100 100 100 100 100 98 90 99 99 99 97 97 94 61 60 64 59 57 70 73 86 99 98 97 97 87 83 85 89
50 78 60 57 50 47 44 55 70 87 97 100 100 100 100 100 100 100 100 100 97 100 100 100 100 100 100 100 100 100 100 100 100 99 98 97 94 76 58 70 80 69 71 76 85 94 97 98 88 72 60 58 62 67
74 78 50 45 49 53 68 70 71 72 93 100 99 100 100 100 100 100 99 95 96 97 98 99 98 100 100 99 99 100 100 100 98 98 99 97 76 67 66 70 74 81 91 92 90 89 85 73 58 56 54 54 52 54
56 55 46 45 47 69 72 76 65 87 100 100 100 100 100 99 89 92 99 87 78 75 76 74 93 81 95 90 99 100 100 99 97 91 84 73 70 70 72 81 86 88 85 80 76 69 64 61 60 58 59 56 64 61
25 29 41 52 57 66 85 83 60 72 88 93 90 89 83 83 93 99 100 85 67 62 86 86 96 96 96 95 94 92 90 85 84 86 87 80 82 84 84 83 82 81 70 65 66 63 59 59 57 59 72 70 73 73
38 32 43 66 72 73 79 68 67 68 67 76 82 77 76 87 91 100 97 74 89 79 87 87 89 97 94 95 95 92 92 81 81 82 80 80 80 83 91 92 82 72 73 75 69 68 69 62 62 68 76 79 82 79
64 50 75 69 72 84 74 74 62 58 59 64 65 62 79 97 94 90 76 84 86 93 96 94 92 90 86 90 92 94 95 89 92 95 86 88 86 84 87 86 82 76 70 68 69 76 74 69 78 80 81 84 80 76
60 64 76 78 90 91 86 63 80 77 79 78 70 70 79 82 81 67 81 80 87 79 88 83 86 87 85 93 94 97 98 91 88 91 94 94 94 95 88 74 74 71 66 64 66 69 75 81 81 86 83 81 80 79
58 88 96 91 84 94 80 81 62 65 70 79 81 78 85 84 75 75 84 78 77 74 79 77 74 74 80 84 82 89 94 95 94 96 97 93 90 90 82 73 75 76 77 76 76 82 81 85 86 83 83 82 79 80
76 89 91 84 82 81 83 83 77 72 78 76 81 79 82 81 81 76 80 77 80 83 87 88 78 78 82 86 89 93 98 95 92 88 91 89 82 68 65 68 76 79 85 84 83 84 83 85 85 85 83 82 80 80
84 92 82 82 82 83 85 85 84 82 78 81 86 81 82 76 77 80 76 86 83 86 88 90 90 84 81 85 83 84 91 87 78 75 73 70 70 70 65 63 62 80 91 95 93 88 84 84 85 84 82 79 84 84
82 86 77 71 76 77 83 82 80 76 79 80 79 78 80 83 82 82 78 81 83 90 93 94 88 84 82 85 90 94 95 94 86 80 78 79 82 85 86 81 79 88 96 97 98 95 93 90 87 84 83 83 84 87
77 82 82 82 79 77 82 79 81 84 84 75 77 82 82 86 89 84 82 89 92 93 94 96 96 93 92 92 94 94 92 93 96 89 89 89 91 94 98 97 100 99 100 100 100 100 99 96 93 89 87 87 88 90
80 89 82 91 83 81 81 79 82 81 75 76 86 86 84 79 86 87 89 93 96 94 90 89 93 96 96 96 98 95 92 87 71 62 61 67 69 82 95 96 96 97 100 100 97 99 99 100 100 98 99 98 96 95
88 92 78 84 81 79 90 90 92 90 80 84 78 74 74 83 92 96 94 93 90 91 93 93 94 92 88 82 82 89 99 97 94 85 77 77 83 93 95 95 98 99 100 100 100 98 98 100 97 93 93 92 92 96
85 83 79 75 78 85 87 92 89 90 86 85 84 85 84 84 90 94 94 94 93 93 92 89 89 88 84 83 80 76 78 98 99 99 99 100 99 97 97 100 100 100 100 100 100 100 98 98 94 91 90 91 93 95
84 93 86 78 81 86 85 84 86 83 86 85 84 82 84 83 82 83 99 97 89 86 91 87 83 89 96 96 100 98 82 97 98 100 100 100 100 100 100 100 100 100 100 100 100 100 98 98 97 94 94 93 93 96
81 76 72 74 74 76 81 84 78 80 78 79 83 81 84 85 85 86 99 100 99 96 95 98 100 100 98 89 99 95 84 93 100 98 100 100 96 100 100 100 100 100 100 100 100 100 98 98 98 95 93 95 96 97

GFSWCAN_925_rhum_012.txt.gz
RH
96 94 93 90 87 89 87 76 63 71 79 89 85 80 85 88 81 100 93 89 95 66 33 27 22 25 26 40 67 53 54 51 69 80 87 69 81 57 48 34 59 65 80 92 82 98 88 20 24 43 44 32 30 29
88 84 84 87 86 80 60 63 69 85 87 86 86 83 78 74 78 100 95 85 80 86 56 54 52 46 34 22 42 55 41 49 55 56 74 81 93 90 69 69 30 53 48 62 55 62 34 21 25 23 24 29 30 32
85 85 77 71 73 82 78 78 78 85 93 91 89 88 68 78 98 98 94 75 77 65 60 44 46 52 52 55 57 47 44 36 43 48 79 89 93 86 94 75 44 34 32 52 47 21 22 23 20 22 22 27 28 30
94 97 97 98 96 89 84 80 78 88 96 90 91 72 77 98 98 100 96 92 71 62 97 72 55 50 57 52 52 52 46 51 54 56 88 99 97 52 88 60 70 42 35 35 36 30 24 21 31 32 34 35 39 43
83 82 80 79 84 83 83 92 99 97 88 89 85 80 96 95 98 78 83 93 74 40 82 75 55 56 52 51 46 47 48 53 58 81 95 90 68 79 81 69 68 35 34 62 70 40 44 39 43 44 47 46 42 42
96 93 87 88 92 92 94 90 87 86 88 100 98 96 98 98 73 92 95 67 71 50 75 88 60 54 47 48 45 46 50 49 48 73 90 59 47 65 96 72 31 41 40 43 44 46 46 46 44 44 48 48 48 50
100 100 100 95 88 91 96 98 95 87 87 93 82 73 70 67 72 89 74 85 66 58 76 93 87 61 47 47 49 50 46 45 46 60 85 73 60 58 98 75 46 45 45 48 46 50 54 47 52 51 61 65 71 72
99 100 100 100 99 96 92 88 80 76 68 64 64 68 69 74 79 84 71 66 64 63 84 88 100 86 59 84 85 59 68 62 68 73 76 86 74 87 85 52 48 49 47 50 47 45 47 48 54 64 71 73 73 73
80 76 85 100 100 100 100 88 80 78 76 76 75 75 85 69 76 80 69 70 54 70 97 94 94 100 61 81 84 80 64 96 68 99 83 74 87 89 60 55 55 56 56 53 47 48 52 61 66 70 69 66 68 66
66 63 63 66 87 100 100 100 88 78 72 71 76 59 87 93 69 66 65 70 78 90 88 100 87 96 74 97 93 92 94 95 95 92 69 94 84 56 56 54 53 51 52 52 61 66 66 68 73 72 69 70 81 82
73 64 59 63 53 67 83 82 78 68 70 62 79 94 87 71 67 71 91 87 91 100 82 84 91 96 79 97 100 99 100 100 99 87 89 86 86 66 57 63 57 52 51 55 58 63 66 71 71 77 83 77 76 76
77 66 69 59 57 59 50 60 66 65 78 68 68 76 75 78 83 96 100 98 96 97 97 98 93 84 93 72 93 96 100 99 91 80 98 83 82 67 73 73 62 57 58 60 62 65 66 72 69 73 77 88 96 96
75 72 66 57 65 56 50 53 57 54 55 56 71 97 86 98 100 100 100 100 99 100 100 98 100 97 91 76 94 86 97 96 76 98 83 86 79 79 80 70 62 58 57 57 53 55 64 83 91 89 99 97 89 92
80 71 70 69 72 66 62 53 50 54 62 92 100 100 100 100 100 100 100 100 100 100 100 99 100 100 100 100 100 100 100 85 100 100 86 92 85 92 76 66 62 59 70 63 63 81 97 98 99 100 99 99 97 94
71 76 71 69 75 73 67 56 51 59 80 93 92 100 100 100 100 100 100 100 100 98 100 99 99 94 100 100 100 100 100 100 84 96 98 96 97 86 75 67 66 72 94 78 83 98 98 98 97 98 98 95 90 89
57 53 58 51 52 68 63 55 65 82 96 99 99 100 100 100 100 100 100 100 99 100 100 98 100 100 100 100 99 99 97 95 100 100 99 97 98 96 90 77 71 64 75 80 91 97 95 92 93 87 76 78 82 71
60 77 54 49 46 46 51 60 72 91 98 100 100 100 100 100 100 100 100 99 98 100 100 100 100 100 98 100 99 100 100 100 100 99 98 97 98 88 78 81 78 78 79 85 92 93 93 92 78 68 59 57 59 65
72 72 47 44 61 54 66 68 82 76 100 99 100 100 100 100 100 100 100 96 99 100 99 100 99 100 100 99 100 100 100 100 99 98 98 96 85 69 74 73 82 88 89 89 89 89 86 74 59 58 55 54 53 59
58 62 50 48 58 67 71 75 70 96 100 100 100 100 100 98 91 98 100 92 79 79 91 93 99 98 99 99 99 100 100 100 98 97 87 81 80 86 85 88 89 88 86 82 74 66 62 61 59 61 62 62 68 68
35 36 55 58 56 67 79 77 62 80 94 98 97 91 84 85 97 100 100 89 81 79 88 92 97 96 98 97 98 98 98 96 96 97 98 90 88 88 86 82 80 74 70 68 68 62 61 62 58 66 76 74 78 78
37 46 58 66 64 70 75 69 70 71 76 84 83 81 82 91 97 100 98 80 86 94 94 98 98 98 98 96 99 100 99 98 98 98 90 96 92 91 96 99 98 95 92 89 73 70 69 66 69 73 80 85 86 84
62 62 76 63 74 82 72 74 62 57 67 72 66 65 83 96 96 94 78 84 84 93 95 93 94 88 85 86 89 98 98 98 98 98 99 98 94 94 96 98 95 95 90 76 75 79 78 76 86 85 85 88 81 80
60 69 81 80 92 90 84 57 82 69 75 70 68 68 75 78 83 70 80 83 90 96 97 92 90 88 87 90 87 90 96 94 93 95 96 96 97 97 97 97 97 94 74 68 71 75 83 82 86 87 86 82 82 84
52 94 95 90 86 91 86 76 57 61 71 69 69 75 82 86 73 71 83 84 90 85 83 86 94 92 82 80 83 90 95 94 92 95 97 93 90 94 97 96 87 84 83 79 84 85 85 88 84 84 86 83 82 83
82 92 93 81 87 80 77 73 73 66 71 71 81 84 82 85 81 81 86 90 88 90 91 92 82 87 88 89 87 91 97 92 89 88 96 97 95 81 74 78 82 85 88 88 86 85 83 84 85 86 82 83 82 82
84 85 78 76 77 79 74 75 76 76 72 78 80 76 83 81 77 89 86 91 89 90 91 92 94 83 80 82 80 84 91 92 76 74 73 75 77 74 69 68 72 90 96 94 93 88 84 85 85 84 84 82 83 93
81 81 78 71 75 76 81 75 77 77 81 83 84 83 78 82 86 88 84 85 87 94 97 97 88 86 84 85 89 93 91 90 81 77 78 81 87 89 90 87 87 97 98 96 96 97 94 92 91 90 89 90 94 96
76 83 85 82 77 78 74 74 78 86 87 81 81 85 87 90 90 87 88 93 95 94 95 95 96 94 94 98 98 98 96 89 80 89 94 92 91 96 96 96 99 95 99 100 98 100 98 97 97 95 96 96 92 93
80 84 86 90 72 74 89 90 88 86 77 82 89 89 88 83 89 91 89 94 98 98 92 91 94 97 96 95 95 93 94 93 76 71 68 73 78 97 94 94 95 96 98 97 95 94 97 96 97 98 96 96 94 94
80 88 73 71 80 87 91 89 92 87 82 84 75 73 76 86 94 98 95 93 90 92 94 95 96 94 94 94 85 94 100 98 96 91 82 82 86 93 93 97 98 97 98 98 97 96 92 98 92 92 98 97 96 100
75 77 72 67 80 89 87 84 91 88 86 87 84 87 85 86 92 95 97 98 94 96 95 91 90 92 86 87 87 85 91 99 98 99 99 100 97 96 100 100 98 100 98 98 98 96 96 95 94 93 93 94 93 95
75 82 78 73 86 88 76 78 79 88 89 90 86 84 86 89 85 85 97 98 90 88 93 92 89 91 98 99 98 97 94 97 98 100 100 100 100 100 100 100 97 100 100 99 96 97 96 96 95 93 94 95 97 95
70 67 68 66 66 72 77 76 71 83 78 82 82 83 84 84 87 88 99 97 97 96 97 99 100 100 100 100 96 97 82 90 98 97 100 100 97 94 98 100 100 100 100 100 99 97 96 96 96 98 96 94 96 100

GFSWCAN_925_rhum_015.txt.gz
RH
91 87 85 71 83 91 86 89 98 98 98 88 93 90 83 85 77 100 94 94 100 99 85 56 39 50 49 71 83 74 86 72 92 86 87 86 95 70 69 64 71 74 92 97 98 99 83 31 28 36 59 39 38 35
84 89 92 93 89 82 85 73 80 82 87 78 80 80 76 76 81 97 94 93 98 98 94 68 55 33 38 50 70 70 70 67 81 86 96 98 99 96 74 75 48 74 73 82 73 81 58 24 32 39 36 36 32 37
94 91 90 85 82 75 67 72 71 70 72 78 77 74 75 74 78 89 89 92 97 99 91 90 72 56 49 42 37 71 67 58 63 78 95 100 91 93 92 88 54 42 40 72 51 32 35 29 25 35 46 52 58 58
83 81 77 77 77 77 74 67 65 73 77 74 79 83 76 79 89 91 94 92 100 99 100 84 55 60 52 50 44 48 60 64 78 90 98 99 100 79 93 72 79 64 43 48 51 37 54 60 59 59 56 56 50 53
88 81 82 85 84 77 72 71 79 74 74 84 85 89 84 83 84 82 98 93 93 99 100 92 64 55 50 49 51 50 65 73 87 85 96 94 93 86 95 86 79 51 53 70 79 56 67 66 59 54 56 57 55 65
99 97 95 96 92 88 94 92 91 88 91 87 88 91 95 96 100 98 100 85 96 98 99 99 78 63 51 52 57 66 66 74 82 94 98 82 65 82 94 90 56 56 61 59 67 62 61 63 68 68 73 73 72 74
84 78 80 90 88 85 82 83 90 90 87 98 96 96 98 89 98 98 97 94 93 100 93 97 96 79 59 65 84 72 62 82 85 89 97 85 73 92 98 88 60 60 59 62 60 59 66 60 79 72 76 78 82 84
90 89 89 91 80 77 75 84 99 97 92 96 96 100 93 99 82 91 81 77 92 82 88 98 100 95 70 94 98 88 92 91 92 92 94 96 92 97 90 67 60 59 57 59 58 60 68 72 76 76 74 76 81 83
100 97 94 93 89 89 90 97 98 97 100 100 100 99 100 99 98 85 72 67 51 71 98 100 100 100 80 98 97 92 94 100 94 100 95 89 99 97 73 68 67 63 66 63 62 66 71 78 75 72 75 76 76 85
100 100 100 100 100 100 100 100 100 99 92 78 83 98 100 91 65 69 63 85 90 93 96 100 98 100 88 100 100 99 100 100 100 99 89 100 96 70 69 69 67 66 59 63 81 85 80 77 75 78 86 82 79 76
100 100 98 99 100 100 84 69 71 80 95 89 97 100 93 73 66 90 91 93 92 100 98 99 99 100 91 99 98 100 100 99 99 93 94 98 100 78 74 72 70 69 68 68 66 70 71 72 87 85 82 85 90 97
76 87 98 100 100 100 99 83 93 84 84 70 81 79 78 88 94 98 100 100 97 97 99 100 100 95 98 92 100 99 100 97 100 91 98 93 92 86 80 74 71 69 71 72 72 75 77 78 78 86 96 99 100 99
71 72 75 83 95 100 92 79 76 64 52 51 76 94 85 99 100 95 99 99 97 99 100 100 100 100 97 95 100 100 100 99 96 100 96 98 89 84 78 72 70 69 70 68 76 84 87 93 96 100 100 100 100 99
65 69 71 78 78 79 78 77 66 50 54 97 99 98 100 99 98 99 99 99 100 100 100 100 100 100 100 100 100 95 100 97 100 99 95 99 94 91 83 71 71 69 77 83 89 98 99 99 100 100 99 93 88 93
63 67 64 69 68 61 53 52 50 52 87 98 92 99 98 100 100 100 100 100 100 100 100 100 100 99 100 100 100 99 98 93 91 98 100 98 94 85 76 72 79 83 88 93 98 98 99 100 100 99 93 89 78 84
51 50 58 60 61 59 55 50 60 76 97 98 98 98 99 99 99 99 99 100 99 100 100 100 100 100 99 100 98 100 96 99 100 100 100 97 96 94 82 81 84 85 91 98 98 99 99 96 92 92 83 68 59 65
45 70 53 55 52 54 53 62 82 97 100 99 99 100 100 99 99 100 100 100 99 100 100 100 98 99 100 100 99 99 99 99 99 99 99 99 98 95 91 91 92 94 98 98 97 96 96 87 67 70 72 82 66 60
72 62 43 49 40 51 61 65 88 96 99 99 98 99 100 100 100 100 100 100 100 100 100 99 100 99 98 98 98 99 99 100 99 98 98 98 96 93 88 89 94 95 96 96 96 94 81 74 69 68 61 64 69 68
61 56 53 44 42 62 87 81 80 98 99 100 100 100 100 100 99 100 100 99 96 95 97 98 95 97 97 97 98 98 99 100 98 98 98 98 97 95 97 100 100 100 99 93 83 72 69 69 73 67 71 75 78 76
42 47 54 58 50 72 83 89 70 94 99 100 100 98 99 99 100 100 86 84 82 90 92 96 97 97 97 97 98 99 98 100 98 98 98 99 100 100 100 100 96 88 92 91 81 72 70 74 79 78 82 86 75 82
26 43 44 59 64 73 92 95 92 96 98 99 97 96 98 99 88 88 92 82 84 97 95 98 98 97 98 98 99 99 97 97 98 100 98 98 99 98 99 100 99 99 97 97 96 96 90 88 81 83 91 86 75 88
53 53 48 54 88 81 89 78 92 89 90 91 92 93 97 95 97 93 88 88 95 97 98 97 96 90 88 92 96 99 99 98 98 97 97 97 94 93 95 97 94 95 96 97 97 94 83 82 75 82 90 83 79 92
40 50 69 71 84 84 90 70 85 78 88 87 89 86 93 92 96 92 96 94 97 97 98 96 94 94 91 91 93 98 98 95 94 95 96 96 97 97 96 97 97 96 95 96 90 87 89 90 77 88 93 75 82 91
51 91 97 96 88 88 90 84 87 89 85 70 72 79 87 95 93 91 96 94 96 90 93 97 96 91 83 84 91 95 98 94 95 98 98 95 94 96 97 97 95 95 97 89 85 90 86 85 86 90 80 78 89 85
80 90 86 86 88 84 85 69 80 79 92 87 88 90 86 96 93 96 96 96 94 96 95 96 90 94 95 96 95 97 98 94 91 91 98 95 96 94 90 92 92 92 89 87 92 87 88 91 86 85 85 86 88 92
86 88 78 77 80 81 78 77 83 88 87 92 96 94 95 93 92 98 96 96 96 97 96 96 96 93 92 94 92 94 98 94 80 86 87 87 92 92 94 96 98 96 90 96 90 96 91 90 94 93 91 85 94 98
85 84 91 89 92 92 91 88 89 91 96 97 97 91 90 96 98 96 97 95 96 97 96 97 98 96 96 98 93 80 71 76 79 84 84 75 76 77 78 83 85 83 91 99 86 84 95 97 98 92 90 98 98 88
96 95 96 92 90 88 90 89 94 98 97 92 96 97 94 96 98 96 96 96 95 92 92 90 90 90 95 96 93 92 93 95 86 90 93 99 96 93 87 92 98 100 100 98 92 99 98 100 96 90 91 96 90 78
96 94 93 91 75 91 97 98 98 98 92 95 98 98 97 95 96 96 96 97 95 93 96 96 98 91 85 80 74 57 47 62 74 89 92 100 97 98 83 99 98 86 87 90 89 88 95 97 100 92 82 96 93 98
76 92 88 86 93 96 95 98 97 96 95 93 90 85 89 95 98 92 93 93 96 98 97 97 96 90 97 97 100 97 92 79 74 75 100 100 100 98 97 100 97 93 100 96 88 96 83 83 88 89 87 90 99 97
74 88 85 89 96 96 88 91 96 90 92 97 90 95 96 97 96 90 96 96 89 95 91 89 89 93 97 98 97 93 95 92 100 99 88 91 93 93 96 98 100 96 89 100 100 98 96 97 96 100 95 91 100 100
70 72 89 95 98 94 81 93 91 96 97 96 98 98 99 97 100 97 93 87 91 97 97 96 98 96 85 91 91 91 89 100 100 96 98 100 97 98 97 88 92 98 100 99 98 95 95 100 100 99 100 99 87 93
86 85 87 88 90 91 91 90 93 96 95 96 98 97 98 97 99 97 97 97 89 92 99 99 96 99 100 94 91 97 97 95 85 93 99 97 97 100 100 95 96 98 97 97 98 98 99 100 100 100 100 98 99 100

GFSWCAN_925_rhum_021.txt.gz
RH
100 100 100 100 100 99 98 95 90 90 89 86 86 87 88 85 89 91 95 95 91 94 90 87 74 68 61 56 64 70 77 83 94 80 86 84 84 77 73 62 66 75 89 95 92 77 58 43 37 35 46 50 52 51
100 99 98 98 93 89 89 91 92 89 88 86 90 89 88 97 78 99 94 98 89 99 94 84 78 74 89 43 54 91 61 79 81 88 96 95 92 92 77 83 62 56 68 77 70 68 49 43 32 37 53 51 48 54
91 91 91 92 92 92 92 91 90 90 91 91 97 99 93 94 88 95 92 89 94 96 90 88 88 62 71 66 39 78 80 80 84 82 94 96 78 90 82 84 69 57 64 68 62 51 51 48 60 55 47 56 65 66
86 87 86 87 88 88 89 87 86 92 94 90 91 94 89 80 77 96 94 91 84 87 100 89 83 88 68 65 52 40 58 82 91 91 97 96 85 77 85 70 77 68 65 67 70 73 69 71 72 71 72 69 66 60
72 72 71 72 75 78 81 84 85 82 84 88 90 81 88 79 88 93 83 90 98 88 100 98 84 78 77 77 58 48 74 82 91 90 97 85 93 88 97 84 85 65 62 74 76 67 60 75 73 70 71 73 69 70
75 80 79 75 72 85 94 96 86 83 82 79 82 80 75 83 94 93 97 80 86 96 99 100 90 92 87 81 64 76 71 89 86 86 100 92 80 78 85 88 57 61 59 52 53 75 78 81 80 75 80 80 78 80
86 81 78 79 75 77 81 91 97 99 88 79 78 86 98 95 84 88 90 81 54 92 97 99 95 94 95 88 96 97 93 97 92 94 96 89 87 75 93 80 60 77 78 80 76 75 86 80 93 84 84 85 87 90
83 76 76 78 79 74 74 83 86 90 98 93 83 93 84 79 86 83 84 99 90 78 93 100 99 100 91 100 100 98 99 96 98 99 98 97 99 96 72 72 82 78 78 82 85 77 81 85 84 85 81 81 87 92
80 80 76 69 76 79 78 82 82 86 83 86 88 87 98 96 89 92 94 99 99 91 100 100 100 100 95 99 100 99 98 100 97 100 100 92 100 90 83 83 82 78 77 92 84 84 84 88 87 83 85 88 88 85
86 82 82 95 97 93 87 85 81 83 83 86 95 97 99 76 76 71 82 97 100 97 97 100 99 100 96 100 100 100 100 100 97 99 96 97 97 82 89 81 82 87 83 81 94 96 92 92 89 88 88 77 75 80
85 87 87 86 84 81 86 80 82 87 95 93 99 100 99 81 88 96 100 100 99 100 100 99 100 100 98 98 100 100 100 99 90 97 96 99 99 90 91 91 85 82 80 78 75 77 77 80 87 88 87 88 90 92
82 84 85 81 79 72 76 96 94 91 86 87 98 81 86 93 99 100 100 99 98 99 99 100 100 99 100 96 99 100 99 96 93 94 93 98 96 97 95 94 91 85 82 82 79 85 85 82 80 85 89 95 98 100
83 81 80 72 70 76 74 99 98 94 97 97 92 96 96 100 99 99 99 100 99 100 100 100 100 100 96 93 100 99 96 99 94 96 97 97 97 95 93 89 87 82 84 84 85 84 86 89 90 91 97 100 100 94
98 95 91 90 89 85 98 100 88 100 86 96 100 99 99 98 99 99 99 99 99 100 100 100 100 100 100 100 100 99 100 97 98 98 97 99 96 92 88 85 87 91 91 91 92 93 95 98 99 100 100 95 81 88
100 100 100 100 97 94 93 96 100 89 89 98 97 98 99 99 99 99 99 100 99 100 100 100 100 96 100 99 99 100 99 99 98 98 100 99 92 87 90 92 95 95 96 96 97 98 98 98 99 100 96 77 68 75
93 90 99 100 99 100 99 85 79 84 92 96 98 98 99 97 98 98 98 100 99 100 100 97 99 99 99 99 99 98 97 99 99 99 100 94 92 91 94 96 98 98 98 98 98 98 98 97 94 99 81 66 64 62
64 76 82 75 74 78 79 78 77 96 98 93 99 99 99 99 99 99 99 100 99 100 99 98 98 98 97 95 97 99 98 98 99 99 99 99 98 98 98 98 98 98 97 98 98 97 97 89 83 87 89 86 75 72
68 61 59 58 66 56 63 74 91 92 98 99 98 98 98 98 98 97 98 97 99 99 99 99 96 94 97 96 96 97 99 99 99 100 99 99 98 99 98 98 99 99 98 97 94 95 88 82 79 81 87 90 86 90
61 47 43 43 44 58 86 88 84 98 99 99 98 98 98 98 96 94 91 96 97 91 96 96 94 95 96 96 96 96 97 98 98 98 98 99 100 99 100 100 99 99 98 92 84 89 94 96 99 95 89 87 93 81
45 48 50 45 43 78 88 93 80 97 99 99 98 78 87 84 85 85 78 76 78 84 90 93 95 96 96 96 96 96 96 98 99 94 95 95 98 97 98 97 96 97 96 97 97 97 97 96 96 95 86 86 89 90
22 32 44 48 56 72 94 98 99 99 99 98 100 98 95 76 75 80 83 75 78 94 94 96 96 96 96 96 96 96 95 95 95 97 96 93 96 95 95 97 97 96 95 96 95 96 96 96 96 95 90 90 90 96
48 45 41 40 73 75 86 83 95 96 90 93 94 94 96 97 96 92 77 85 94 96 96 95 94 93 90 91 94 96 97 96 96 96 96 95 93 93 94 96 95 95 95 96 96 96 96 95 95 94 83 82 96 95
47 54 66 68 79 78 83 75 86 87 89 94 90 90 97 99 100 89 95 89 94 95 96 93 94 93 91 94 91 95 97 91 92 94 95 95 96 97 96 97 97 95 95 97 96 96 96 93 87 83 77 79 90 89
48 75 91 92 86 97 85 86 86 90 91 92 82 78 96 99 92 92 97 93 94 94 91 94 93 88 82 84 90 94 97 92 94 97 98 92 92 97 99 100 95 92 92 92 92 93 93 92 89 87 87 88 90 91
80 90 82 85 88 76 87 91 93 89 94 100 85 94 95 92 98 98 97 96 94 94 94 94 90 91 94 94 94 97 96 94 94 94 100 98 97 96 95 89 89 86 74 69 77 84 91 89 88 85 83 94 96 98
97 98 86 91 91 82 88 90 97 98 96 98 98 98 92 92 93 99 94 98 96 97 96 96 96 92 92 96 95 98 100 86 85 94 99 88 84 85 85 88 92 100 97 92 91 90 90 93 94 93 95 91 96 98
99 98 90 96 97 92 95 96 94 95 99 97 98 96 92 99 100 96 97 96 96 97 98 97 98 98 97 99 98 95 82 75 84 97 94 86 88 91 90 98 100 100 97 97 97 95 98 100 99 100 100 94 89 96
99 98 90 91 95 96 100 100 100 98 100 97 89 99 100 99 100 96 96 96 96 96 92 71 60 63 67 79 99 98 98 92 87 88 88 86 82 91 100 100 100 99 100 100 100 99 98 100 95 93 98 99 99 92
98 97 89 98 96 96 97 98 98 97 93 96 99 99 100 94 97 96 96 97 96 93 96 96 98 90 81 72 66 64 59 59 55 88 99 100 96 94 94 90 86 84 93 97 96 98 100 100 100 99 99 97 100 100
92 98 100 96 97 93 100 100 100 98 94 95 88 82 88 96 97 96 95 92 92 98 98 96 88 80 92 87 96 99 98 97 97 98 100 100 100 100 100 96 92 93 94 94 94 91 91 92 92 92 96 97 95 93
96 96 98 98 99 97 95 90 77 80 92 98 90 98 98 98 98 97 97 98 96 92 90 95 96 95 88 88 92 94 97 99 100 96 96 98 98 99 100 100 100 100 100 100 99 99 98 96 100 100 96 98 100 100
96 100 99 100 97 97 94 96 98 99 99 99 99 100 98 97 100 99 98 89 85 90 97 97 95 100 100 100 100 100 100 89 79 85 93 99 100 98 94 98 99 98 97 94 95 100 100 100 100 98 94 95 98 100
98 98 98 98 96 96 97 96 96 97 97 98 99 99 100 96 100 100 100 100 95 82 75 82 99 100 100 98 92 81 80 84 89 92 96 99 99 97 95 97 95 94 92 92 99 100 100 100 100 100 99 98 100 100

GFSWCAN_925_rhum_024.txt.gz
RH
83 88 90 88 87 87 74 99 100 100 99 99 97 95 96 88 85 87 75 67 97 94 83 86 78 69 62 60 73 72 75 86 96 83 91 85 91 79 74 64 74 78 90 88 88 80 75 43 39 43 47 50 54 55
100 99 94 85 83 92 100 100 100 99 100 98 99 98 97 92 92 87 74 60 83 98 94 88 80 70 76 52 56 71 62 85 81 87 94 94 90 93 74 78 62 63 69 77 70 72 52 47 39 38 49 54 53 56
99 99 99 100 100 99 99 99 98 98 96 95 96 92 92 94 94 89 71 65 96 95 84 89 86 64 63 63 57 68 84 77 78 77 91 94 84 90 85 81 71 60 60 63 60 53 57 49 52 50 46 49 58 62
94 94 95 97 98 99 100 99 99 98 97 91 91 92 88 80 79 86 82 82 94 92 100 91 81 87 82 74 67 66 63 85 89 88 95 94 85 79 85 72 78 69 66 73 66 71 67 64 67 63 71 72 69 65
83 87 88 90 95 97 97 97 96 94 90 86 83 72 65 71 88 91 80 89 89 92 99 96 75 73 80 91 90 79 64 88 91 92 95 86 95 90 97 84 87 72 67 76 72 63 54 52 75 73 74 74 71 70
70 76 83 86 88 85 86 88 86 81 76 80 84 82 87 92 85 96 97 92 96 79 93 99 86 86 89 93 97 78 70 88 89 85 93 94 87 81 89 87 56 61 63 56 49 72 85 88 83 76 80 80 76 76
78 77 84 86 84 85 85 89 85 87 86 81 85 82 85 77 83 90 92 85 78 87 96 99 99 84 96 93 98 96 92 98 90 95 97 92 93 75 91 73 49 66 70 82 80 75 83 78 88 85 85 87 86 88
78 73 77 86 93 95 82 79 86 87 85 83 77 84 78 88 84 91 77 87 84 83 92 99 94 94 93 99 100 98 99 94 98 99 98 98 98 94 78 69 84 85 83 86 88 82 79 90 89 94 88 86 92 96
72 76 80 79 90 93 96 97 94 82 85 83 76 81 90 89 87 84 71 94 77 80 97 100 100 98 94 99 99 98 96 99 98 100 100 96 100 87 69 85 89 85 78 94 89 87 86 90 92 90 90 90 93 94
81 81 73 70 82 88 94 90 92 82 81 90 92 92 100 78 74 75 98 96 99 99 100 100 99 100 95 100 100 100 100 100 100 100 95 99 96 88 88 84 86 86 84 82 96 97 94 94 93 91 87 83 84 88
69 78 88 79 86 87 91 87 87 92 94 93 98 100 95 80 74 96 100 100 99 99 99 97 100 100 95 98 100 100 100 100 99 99 97 99 98 88 91 92 84 82 79 80 77 79 79 81 88 88 86 85 87 88
70 94 95 94 89 84 87 88 96 86 77 84 89 81 83 93 99 99 99 100 100 95 100 100 100 99 100 96 98 99 99 98 94 94 98 99 96 99 98 98 95 89 86 85 81 86 86 85 83 85 86 88 92 97
94 94 89 82 84 83 79 87 96 94 90 99 90 94 94 100 99 99 98 100 96 100 100 100 100 100 97 94 99 100 98 99 97 99 97 96 98 98 95 92 94 89 88 87 87 86 88 90 92 92 97 99 94 92
83 83 82 79 76 88 87 94 93 94 98 97 98 98 99 98 98 99 99 99 99 100 100 100 100 100 100 100 100 99 100 97 98 98 95 99 98 98 92 91 90 95 94 94 94 94 96 96 98 99 98 93 91 91
80 78 77 80 78 93 97 97 98 87 95 99 99 98 98 100 100 100 100 99 99 100 100 100 100 98 100 99 99 99 98 99 99 99 99 99 96 95 96 95 96 96 96 96 96 96 97 97 96 98 94 86 90 83
100 99 98 84 93 100 100 99 90 89 94 98 98 98 99 97 97 98 98 99 98 99 99 96 99 99 99 99 92 97 98 98 98 99 99 99 98 98 98 98 98 98 98 97 97 97 97 97 96 94 83 83 80 74
90 98 100 97 99 94 94 91 84 95 98 98 99 98 99 99 98 98 99 98 98 100 99 99 97 97 98 96 96 97 98 98 98 99 99 99 99 99 98 98 98 97 97 97 97 98 98 97 84 77 78 80 73 72
92 99 100 98 82 70 70 75 90 90 98 99 98 98 96 96 94 94 96 97 99 99 95 98 91 94 96 95 95 96 96 97 98 98 98 99 99 99 98 97 98 98 97 98 97 97 96 87 84 87 84 90 92 94
88 81 76 73 84 78 88 89 83 96 98 98 97 95 97 95 79 82 83 87 87 86 91 89 90 95 96 95 96 95 96 96 97 96 96 97 98 98 98 98 98 97 97 97 96 96 98 98 97 97 96 95 96 94
57 63 76 86 84 86 95 95 79 93 99 98 92 76 86 86 82 79 74 72 74 79 87 92 95 95 96 95 95 96 95 96 98 93 94 94 96 95 96 95 95 96 96 97 97 97 96 96 96 96 96 96 95 92
35 40 44 48 55 73 94 98 99 99 99 98 100 97 91 69 74 77 76 69 72 93 93 95 95 96 95 95 96 95 94 94 94 94 94 92 95 95 95 96 96 96 95 95 94 96 96 96 96 96 95 95 96 96
49 42 36 38 72 77 84 85 97 98 93 96 95 95 99 98 98 98 81 84 92 95 95 94 94 92 90 92 94 96 96 95 95 94 94 90 91 92 93 96 94 94 95 96 96 96 98 96 96 95 92 93 95 93
48 51 60 66 77 76 81 76 84 86 91 95 90 91 98 99 100 85 96 88 94 94 95 94 94 92 90 93 91 94 96 91 92 94 94 95 97 97 97 98 98 96 95 99 96 95 94 89 85 82 80 80 86 91
46 75 90 89 82 91 87 88 88 91 92 92 82 93 96 100 91 92 98 94 93 91 89 91 91 84 80 84 90 94 97 91 94 98 95 90 91 96 96 96 90 81 85 87 88 91 91 91 87 84 83 88 92 94
80 92 82 86 88 81 92 92 93 90 100 98 90 96 98 92 97 98 98 96 94 96 94 94 90 91 95 94 95 98 98 94 94 96 100 100 97 95 96 97 97 96 86 79 86 86 88 87 88 88 92 93 97 97
96 97 96 97 91 85 97 99 100 99 99 98 98 96 90 92 93 100 94 98 96 97 97 98 97 93 94 98 97 99 99 85 83 96 99 78 76 81 93 98 100 100 100 99 94 93 93 93 93 94 90 91 93 95
100 97 90 90 97 94 100 99 94 95 99 92 98 96 91 100 100 96 95 95 95 97 97 96 96 99 98 99 99 97 85 78 82 95 96 94 97 96 95 100 100 100 100 100 100 100 100 100 100 98 97 94 92 99
98 96 92 97 99 97 100 100 99 98 98 96 86 100 100 100 100 97 96 97 95 83 68 68 73 93 99 98 99 97 93 92 95 88 69 80 84 89 87 84 82 82 85 92 96 97 100 100 100 100 100 100 99 97
98 100 93 100 94 97 97 99 99 97 91 96 99 100 100 94 97 97 96 97 96 94 95 96 95 76 72 73 70 68 64 64 54 96 100 100 96 97 100 99 96 95 90 86 87 87 92 99 98 98 98 100 100 100
93 98 99 100 97 96 99 99 100 99 91 96 88 82 91 97 97 97 95 93 92 97 92 86 86 71 81 79 92 92 93 92 94 93 100 100 100 100 100 100 97 95 96 95 94 92 88 86 85 86 87 86 92 99
97 96 97 99 98 98 95 88 76 80 94 99 94 99 99 99 98 98 97 98 96 95 91 93 92 94 90 90 91 92 93 94 87 88 95 99 100 98 94 94 94 96 98 98 98 99 100 99 99 98 91 90 92 99
98 100 100 100 98 97 97 97 100 100 100 100 100 100 100 99 100 100 98 90 84 82 92 100 99 100 100 99 96 88 86 85 86 90 96 100 100 99 96 95 98 98 95 89 88 99 100 100 100 100 99 98 97 100
98 100 98 100 98 97 96 95 97 99 100 100 100 100 100 97 100 100 100 98 87 75 76 86 96 100 100 94 88 85 89 92 94 92 100 100 99 95 90 87 90 94 91 89 91 96 98 99 98 98 98 98 98 99

GFSWCAN_925_rhum_027.txt.gz
RH
86 86 91 88 85 87 94 95 93 93 77 98 98 92 98 98 93 74 88 71 78 96 86 81 83 70 61 58 71 74 69 72 91 82 88 86 85 73 71 67 75 74 76 83 78 80 63 44 37 45 43 44 48 50
91 84 89 90 89 90 89 96 84 82 100 95 96 100 100 98 95 80 78 79 77 96 97 94 91 75 74 45 55 60 62 68 68 81 89 87 91 95 72 68 63 72 65 69 63 63 54 44 41 40 43 43 52 52
100 89 88 87 86 82 90 82 87 100 100 100 96 94 98 98 96 83 71 81 80 90 89 91 84 67 69 66 42 71 77 72 81 78 87 88 83 85 88 77 69 64 60 61 58 51 51 50 47 48 46 48 48 47
94 99 100 98 98 94 99 99 100 100 99 99 100 100 96 94 98 96 73 72 74 92 97 90 89 90 67 69 62 61 64 79 84 85 88 94 87 74 84 69 76 65 58 64 61 53 66 58 57 51 58 63 60 56
88 97 96 95 95 97 98 96 95 98 99 100 100 97 96 96 97 82 67 75 64 93 100 94 75 67 71 90 80 75 72 85 88 89 96 87 87 85 95 82 79 66 62 66 62 44 48 46 54 63 64 61 58 61
86 88 90 98 99 100 99 99 98 98 99 98 96 94 93 97 94 72 92 70 86 88 98 100 85 89 90 100 98 92 82 83 86 86 91 88 85 78 89 82 53 58 65 57 43 58 70 78 71 66 66 65 64 63
84 84 86 90 93 96 98 98 97 93 89 87 78 73 76 88 84 85 91 84 73 84 98 100 98 89 92 95 99 99 93 90 84 86 95 88 91 79 91 72 48 56 62 68 73 68 71 73 70 73 70 72 72 71
89 85 85 81 83 87 90 87 82 80 80 78 70 66 75 87 85 96 92 75 52 95 94 99 98 95 89 100 100 98 99 96 96 93 96 94 96 92 83 62 73 77 76 78 75 77 71 78 80 83 80 78 82 85
80 90 93 83 82 83 76 74 84 84 85 74 85 81 94 92 92 82 92 81 78 81 98 96 100 99 90 99 99 99 94 100 97 100 99 92 100 89 69 66 82 83 80 86 86 82 80 82 85 84 80 80 86 88
75 89 92 91 82 77 74 78 80 82 97 93 98 88 99 79 75 97 100 99 97 96 96 99 95 100 92 100 100 100 100 100 100 99 95 100 96 84 87 86 81 82 81 79 92 97 94 93 89 86 83 81 83 85
66 78 87 90 95 94 70 80 91 84 89 82 95 98 83 81 76 95 99 98 99 100 99 96 99 100 95 98 100 98 100 100 100 98 98 99 97 90 93 90 82 79 76 78 74 79 76 79 85 87 87 86 88 87
79 93 99 99 97 100 83 72 82 86 79 88 84 80 86 93 97 98 100 100 100 98 100 100 99 97 100 93 96 99 99 99 98 94 100 100 99 97 97 98 95 90 88 90 82 88 88 83 81 85 88 90 95 98
88 90 94 97 94 98 90 87 84 84 97 84 85 94 93 100 100 97 97 99 100 100 100 100 100 100 99 95 100 99 100 99 99 99 99 100 97 97 97 95 97 95 90 87 88 86 86 88 90 92 95 98 98 98
86 83 86 93 92 96 100 97 88 91 91 96 94 96 98 97 97 98 99 99 100 100 100 100 100 100 100 100 100 100 100 99 98 97 98 99 100 100 96 94 94 96 94 94 94 92 93 94 97 98 98 99 98 97
82 85 83 89 95 95 98 93 95 92 96 99 99 97 98 100 100 100 100 100 100 100 100 100 100 96 100 100 100 100 98 97 98 98 98 98 100 99 97 97 97 97 96 95 94 95 96 97 96 97 98 98 97 97
79 79 95 84 89 92 94 91 92 91 99 97 95 96 98 98 97 97 97 97 97 99 99 97 100 97 100 96 95 96 94 94 95 98 98 99 99 99 98 98 98 98 97 97 97 97 97 96 96 97 97 97 96 93
90 100 93 93 98 99 97 90 94 99 99 97 97 96 97 97 97 97 97 96 98 100 99 93 92 96 86 89 90 91 95 96 96 98 98 99 98 98 98 97 97 97 96 97 96 96 97 98 98 94 88 87 90 87
98 100 86 97 83 83 85 79 89 88 94 96 95 96 92 93 93 93 95 93 97 95 86 95 90 92 94 93 92 93 94 95 97 96 95 97 97 97 97 96 97 96 96 96 96 97 97 96 92 88 85 90 93 93
100 100 99 88 87 77 89 89 79 93 96 97 85 83 90 84 75 77 80 80 80 80 83 80 87 89 92 92 94 94 95 94 94 93 94 95 96 95 96 96 96 95 95 95 94 95 96 97 97 97 98 98 96 98
100 95 91 88 90 96 94 95 78 91 95 96 86 74 74 78 75 74 72 69 69 73 85 89 92 93 93 93 94 93 93 95 93 92 92 92 95 94 95 95 95 96 95 95 96 96 96 95 97 96 96 97 97 98
95 97 92 84 62 78 95 97 98 98 97 93 98 92 87 74 74 76 76 66 71 88 90 92 94 94 95 95 96 95 93 92 93 92 90 90 94 94 94 95 96 95 93 94 93 95 96 96 98 98 96 96 96 96
47 42 42 46 73 78 84 84 97 97 92 96 92 92 95 100 98 96 74 82 90 93 92 91 92 90 88 91 93 95 96 94 95 94 95 90 90 89 91 95 91 93 94 96 96 96 98 100 96 88 83 86 89 93
46 46 56 63 76 76 80 74 85 87 90 91 89 90 96 97 97 75 94 82 90 92 93 91 92 93 90 95 93 94 94 88 90 92 93 93 94 93 92 95 98 94 94 98 100 100 99 87 80 78 80 81 82 86
47 74 88 86 81 89 87 91 86 88 91 94 92 98 96 99 83 89 94 87 90 90 87 90 90 83 79 83 89 94 95 90 93 98 91 80 86 91 93 96 97 97 96 95 89 88 89 90 86 85 85 86 90 92
80 92 81 84 90 83 91 96 96 93 100 99 95 96 100 87 95 99 95 92 90 94 92 91 87 88 93 92 93 98 96 92 84 86 96 94 93 91 94 100 100 100 94 89 91 89 91 88 87 85 85 89 94 95
97 97 98 99 98 93 98 100 100 99 98 97 97 93 88 90 93 99 91 96 93 95 96 97 96 90 91 94 91 94 100 92 88 94 100 100 96 94 94 93 91 100 100 100 99 98 97 98 98 98 96 95 93 97
98 99 92 87 94 95 100 99 92 94 98 93 96 96 89 100 100 94 92 94 92 99 100 97 94 98 95 97 100 92 78 71 77 97 98 96 93 90 88 98 100 100 99 96 96 100 100 100 100 100 100 97 98 100
100 93 92 98 97 95 100 100 100 99 99 91 85 99 100 99 99 94 94 98 81 75 81 95 97 97 98 100 100 100 100 91 82 79 81 91 94 96 98 96 95 93 85 85 87 88 98 99 96 97 99 100 98 99
100 100 90 100 96 97 97 99 99 94 89 92 98 100 99 91 98 98 98 98 96 88 85 86 90 80 76 74 73 73 70 63 57 88 94 97 98 94 100 99 97 93 89 87 88 90 98 89 87 88 88 84 85 93
96 97 97 100 96 100 100 98 100 98 90 96 87 83 87 97 98 98 97 96 92 92 93 90 80 72 78 76 85 87 87 81 81 89 100 100 100 100 99 94 91 91 94 95 94 91 93 95 94 92 88 85 86 88
97 97 97 96 98 100 95 91 87 87 97 99 98 99 99 99 98 99 98 98 93 90 88 90 92 92 89 88 88 90 84 78 83 90 96 100 100 98 96 92 92 96 97 94 86 88 92 95 98 98 96 95 94 95
99 100 100 100 98 98 97 99 100 100 100 100 100 100 100 99 100 100 99 97 99 96 95 97 98 98 96 94 86 83 83 86 91 93 96 99 99 98 94 90 88 89 90 88 88 90 93 95 96 98 97 96 97 98
99 100 99 100 98 99 97 96 98 99 100 100 100 100 100 95 99 97 100 90 80 73 77 83 92 96 96 92 94 94 93 94 98 99 99 100 100 98 95 96 93 90 88 86 86 88 91 92 93 94 96 96 96 97

GFSWCAN_925_rhum_030.txt.gz
RH
84 83 84 88 92 92 93 92 85 96 95 92 91 81 100 100 96 76 78 73 60 62 68 74 64 60 44 40 56 47 57 62 75 80 72 69 83 63 42 37 60 57 63 73 54 75 64 29 29 31 26 31 27 30
88 93 85 88 89 97 90 87 89 93 98 88 83 97 100 100 99 86 81 80 74 61 89 83 78 87 71 33 38 56 41 45 52 58 59 53 96 94 47 64 52 62 47 48 43 38 31 30 24 25 28 25 32 30
90 87 89 87 92 92 95 95 90 90 96 95 93 99 99 100 96 79 88 79 65 62 61 71 83 69 70 66 45 49 44 40 49 40 60 69 91 80 93 55 43 50 47 51 49 29 34 34 26 30 28 28 27 29
100 90 80 83 88 88 90 97 98 98 89 92 100 100 98 96 85 85 78 72 53 57 72 58 82 88 66 68 64 52 39 42 50 53 60 73 82 52 66 50 57 40 49 41 43 34 42 38 32 28 31 34 34 31
97 100 91 81 85 91 85 84 87 96 100 100 100 98 100 96 81 75 81 76 60 54 79 69 54 60 63 77 68 59 58 54 65 72 84 72 62 67 70 64 61 43 42 54 49 29 32 23 28 32 35 39 36 37
100 94 99 100 99 94 99 100 100 100 98 98 100 100 100 96 88 74 95 74 77 77 94 100 82 83 85 78 66 62 56 56 61 58 70 53 61 65 86 58 30 39 36 34 33 37 35 48 43 37 37 36 38 40
94 100 100 96 96 100 100 100 100 100 100 100 100 100 96 93 83 78 72 66 83 75 74 100 98 74 93 88 86 72 59 59 59 64 70 59 70 62 87 66 30 34 38 44 51 52 48 49 41 49 44 43 49 41
86 93 100 96 99 99 100 100 96 92 93 93 94 97 93 83 75 73 95 85 70 72 90 100 99 98 87 100 99 98 88 81 72 66 73 67 75 79 81 46 37 45 50 54 54 57 59 50 51 53 50 51 53 54
79 84 83 94 94 94 93 92 91 95 95 94 93 92 89 79 79 92 94 86 84 84 97 99 100 97 92 98 97 98 98 100 96 96 82 70 80 78 62 59 47 52 58 53 64 61 62 60 59 60 58 57 57 62
75 75 78 79 83 84 90 93 95 89 78 82 81 84 99 83 81 93 97 91 83 88 82 92 77 94 83 100 100 99 100 100 100 97 88 98 72 66 71 71 67 66 64 65 72 77 76 72 69 68 66 64 64 67
89 75 71 76 86 88 93 88 77 83 78 78 91 90 82 72 97 90 98 99 96 95 85 74 75 84 85 86 95 96 100 100 100 94 94 97 83 74 78 84 75 70 65 63 61 60 60 64 69 71 72 72 72 73
97 89 74 78 77 72 85 98 90 77 88 82 88 85 96 78 73 94 97 92 95 86 98 99 95 80 98 88 88 96 98 99 100 97 99 98 98 93 92 92 81 75 73 72 66 68 69 67 68 73 80 88 90 95
92 94 85 82 87 88 86 84 86 85 88 89 70 86 88 100 100 96 94 96 100 100 99 93 100 94 98 93 99 92 100 100 98 99 99 100 100 96 96 92 93 87 85 86 88 83 89 91 93 94 95 98 97 97
98 98 98 88 83 85 91 91 96 96 92 89 99 98 100 97 96 96 97 100 100 100 100 100 100 100 100 100 100 100 100 100 100 95 94 92 99 100 100 100 96 97 96 93 93 91 94 95 97 98 98 98 98 98
98 94 96 88 83 90 84 83 88 86 93 99 91 94 96 100 97 99 100 100 99 100 100 100 100 98 100 100 100 100 99 93 89 90 91 95 100 99 98 98 98 97 97 96 96 96 97 97 96 96 98 98 98 98
80 88 98 99 100 98 94 90 92 97 99 94 89 90 91 94 94 95 96 97 100 100 100 99 100 99 95 89 92 92 79 87 89 91 95 96 96 96 97 97 98 97 97 96 96 96 96 96 95 96 98 98 98 98
81 98 96 92 98 99 90 85 92 97 96 94 94 95 95 94 94 95 97 96 98 100 97 86 85 94 69 76 83 81 88 90 92 92 93 96 96 96 96 96 96 96 95 95 95 95 95 97 97 93 90 95 95 96
99 96 98 98 92 84 82 88 91 92 90 91 91 94 92 94 95 94 94 89 87 77 69 86 63 76 85 83 84 88 88 91 92 91 92 93 93 95 94 95 95 95 95 95 96 96 95 94 90 93 93 94 91 92
100 99 95 93 90 88 93 92 65 81 92 89 85 84 76 81 73 73 74 68 65 60 60 61 74 80 86 84 89 90 91 92 90 89 90 93 94 94 95 95 94 94 91 91 89 91 94 95 94 94 95 93 91 93
100 100 97 89 87 83 88 90 70 76 87 80 63 70 71 71 70 75 72 61 55 57 71 76 86 89 88 89 89 90 90 91 88 87 88 88 92 91 93 90 91 93 92 92 93 94 91 90 93 94 94 93 91 91
93 94 81 61 69 86 86 85 93 73 70 79 83 58 62 64 76 78 74 56 70 71 82 87 89 90 90 90 90 90 89 88 89 87 86 85 90 90 90 93 92 90 88 89 88 90 89 90 92 94 95 96 97 97
86 67 47 49 65 69 69 71 81 78 68 73 71 62 72 77 75 75 54 70 77 87 85 83 84 81 78 84 88 89 92 89 91 89 92 86 84 84 86 90 84 87 87 87 87 88 85 85 86 86 89 90 87 91
45 45 60 66 76 77 72 65 78 70 76 75 70 70 72 73 66 49 75 70 82 86 88 85 87 85 84 91 88 87 85 78 77 77 76 75 74 74 73 74 75 72 71 72 75 78 85 88 87 87 87 86 86 85
46 75 82 81 71 83 75 81 66 70 75 77 72 81 84 76 59 66 77 76 85 84 81 85 81 75 74 76 78 83 79 73 74 75 67 64 67 71 73 76 79 82 80 79 83 87 89 91 90 87 89 85 86 84
79 90 78 87 77 78 85 88 85 80 94 88 83 85 83 65 77 77 78 78 82 86 84 83 78 75 81 81 77 78 75 68 66 69 71 69 72 69 72 78 87 90 92 87 86 86 89 92 90 89 86 89 92 88
95 95 90 90 88 84 86 96 95 92 88 88 89 76 70 73 78 84 74 81 81 85 87 86 83 79 76 74 74 76 81 73 67 73 78 78 75 75 72 72 70 83 100 100 97 90 88 92 93 94 90 90 94 95
96 97 83 73 78 78 86 82 75 80 88 91 86 80 74 85 87 79 77 80 79 94 97 97 83 78 78 81 86 87 82 85 82 83 88 90 92 94 91 83 86 98 100 100 100 100 98 94 92 92 92 91 95 100
85 78 90 89 81 76 89 85 86 91 88 78 69 91 86 83 84 78 78 91 91 95 100 100 100 96 95 99 100 98 97 99 100 98 99 99 100 100 100 100 100 95 100 99 100 100 100 100 99 96 96 96 98 100
90 86 73 94 84 86 90 91 90 84 79 75 83 85 85 76 82 82 90 93 99 94 91 91 99 99 98 98 100 99 95 84 64 63 66 74 77 92 100 100 100 100 100 100 100 100 100 100 100 100 100 100 100 100
91 86 81 87 91 91 92 87 88 85 78 80 71 71 73 82 94 100 97 97 93 95 98 97 97 90 90 86 92 98 99 98 100 89 78 82 94 100 100 100 100 100 100 100 100 100 100 100 100 100 100 100 100 100
85 79 81 78 84 81 81 82 83 78 79 83 80 81 85 83 93 100 100 100 100 100 94 96 100 100 96 93 86 79 83 99 88 89 93 100 100 100 100 100 100 96 100 100 100 100 100 100 100 100 100 100 100 100
89 91 85 87 89 81 86 89 87 85 85 81 88 86 88 83 87 88 100 100 100 96 98 100 98 100 95 85 81 79 80 85 94 93 93 98 100 100 100 100 97 97 100 100 100 100 100 100 100 100 100 100 100 100
90 86 84 86 90 90 86 85 83 88 86 85 87 88 87 80 84 88 96 87 98 97 98 98 97 95 90 87 91 89 87 85 90 95 96 97 98 99 95 100 98 93 88 99 100 100 100 100 100 100 100 100 100 100

GFSWCAN_925_rhum_033.txt.gz
RH
98 90 84 86 88 89 85 85 96 98 93 100 98 97 94 75 100 94 78 64 62 71 60 68 51 41 36 39 54 44 51 62 66 66 51 39 58 39 34 29 69 67 65 72 58 60 65 18 21 26 22 18 20 20
91 87 85 92 93 94 99 96 97 100 99 96 98 90 83 91 98 92 71 68 69 74 87 65 67 58 40 28 36 42 47 51 41 43 44 37 67 78 39 46 34 60 55 48 38 38 29 24 22 20 16 19 22 20
96 82 86 93 86 92 85 89 91 90 90 91 94 94 80 100 94 87 66 63 66 83 71 58 53 54 63 57 51 50 48 31 36 30 34 54 70 58 67 53 38 44 32 45 41 32 26 24 22 18 19 22 20 21
97 79 86 88 90 90 93 92 93 97 99 89 86 76 95 97 93 74 66 62 54 62 83 68 66 61 58 58 62 54 49 35 32 35 49 63 66 29 54 46 52 37 41 42 36 28 27 28 26 23 22 24 23 22
98 83 84 91 88 90 97 94 93 97 85 80 96 100 99 96 88 73 73 69 63 52 64 53 52 52 57 58 61 53 51 50 40 55 71 69 39 40 50 56 48 32 36 51 49 29 35 28 23 22 25 26 28 25
100 88 88 91 89 92 96 92 91 87 98 100 100 100 98 93 89 85 95 72 68 62 57 76 64 55 47 48 51 61 52 55 39 47 65 47 29 37 74 54 24 22 32 29 36 33 33 29 34 28 24 24 27 27
100 100 94 88 92 95 95 89 92 96 100 100 99 96 86 78 70 76 69 56 64 52 48 58 86 71 55 60 60 61 51 46 59 57 60 52 44 54 66 71 38 29 22 26 30 39 42 35 30 35 33 28 33 28
100 100 100 100 100 100 99 100 100 100 100 99 93 90 86 82 69 76 83 66 55 51 59 77 88 97 80 95 88 66 70 60 60 61 50 55 49 65 66 39 34 29 29 40 40 44 44 44 40 42 36 37 38 35
97 100 100 100 100 98 99 100 100 100 99 95 90 87 86 86 90 82 77 64 73 55 70 98 96 100 93 95 96 90 69 78 50 73 69 55 73 80 56 50 48 56 52 55 47 49 48 48 44 45 44 44 42 43
91 94 100 98 98 95 90 94 99 98 95 90 79 60 78 80 86 74 78 72 56 57 86 100 93 100 94 99 100 99 98 98 93 88 54 68 64 63 68 66 64 61 56 53 59 57 57 57 54 54 50 47 47 50
79 87 88 93 98 99 98 97 91 81 73 63 68 87 83 87 95 93 86 75 70 85 74 75 86 99 95 98 100 99 100 98 100 99 82 67 69 93 88 84 75 67 60 56 56 54 53 53 57 59 60 58 60 62
83 84 78 80 83 83 84 82 67 63 85 88 85 86 84 96 100 96 93 97 85 67 70 79 70 75 98 94 86 95 99 100 100 98 99 99 95 89 95 95 89 81 78 71 61 62 59 60 58 65 76 86 92 96
73 81 90 93 80 80 78 81 83 91 90 84 83 94 89 93 98 99 98 92 90 94 96 98 94 78 86 84 93 88 99 100 100 99 93 93 79 91 96 97 92 87 87 88 90 90 92 92 94 95 96 98 98 97
79 86 82 96 92 93 92 88 91 87 88 94 99 99 100 97 93 96 98 100 100 100 100 100 100 99 100 100 100 100 100 99 99 93 93 86 87 92 95 95 90 94 94 94 95 95 96 97 97 98 98 99 98 97
86 89 91 86 83 82 80 76 86 85 94 89 77 94 90 94 94 95 98 100 95 99 100 100 100 98 100 100 100 99 99 91 86 89 88 91 93 93 93 95 95 95 96 96 96 96 96 96 96 96 98 98 97 97
88 86 89 80 76 70 70 85 88 87 94 77 84 91 87 85 92 90 89 93 90 98 100 100 100 100 97 89 90 94 80 85 89 90 91 92 95 95 95 95 96 97 96 95 96 96 96 95 95 96 96 97 97 97
86 98 92 84 98 98 90 87 74 90 93 93 93 92 93 89 89 89 90 88 96 100 98 98 93 94 67 77 82 80 91 92 92 91 90 93 94 94 94 95 95 95 94 95 95 94 95 97 95 89 88 95 96 97
100 100 100 88 72 74 73 76 72 82 91 92 92 93 92 93 94 93 92 93 98 92 92 85 59 75 82 82 86 88 90 92 90 90 90 92 92 93 94 93 94 94 94 95 95 95 95 94 90 93 93 96 94 95
98 99 98 88 83 81 82 86 63 79 92 91 90 90 91 93 88 87 86 80 66 59 57 64 81 85 88 85 89 89 91 89 89 87 88 92 93 93 94 94 93 92 90 89 85 86 90 92 93 92 93 88 88 92
100 99 96 90 88 70 89 89 64 65 76 76 78 72 75 78 74 76 73 59 51 54 69 78 86 89 88 89 88 89 91 90 86 86 88 88 91 91 92 91 90 90 85 82 84 80 77 81 86 88 87 87 85 88
97 94 88 86 90 79 89 83 73 65 72 78 68 60 66 64 76 77 73 53 70 68 81 84 87 88 86 88 88 88 89 86 89 87 88 86 90 88 88 88 85 81 80 81 79 76 77 75 75 79 82 83 83 81
90 62 67 69 64 72 68 64 63 59 52 56 56 54 68 75 74 70 54 68 82 86 85 84 85 78 78 83 87 86 88 82 81 78 78 74 74 73 74 72 69 69 68 69 72 75 72 78 76 77 79 78 76 82
59 61 63 64 92 84 75 54 76 58 72 65 57 63 68 70 60 45 68 66 80 83 81 77 81 79 80 84 77 76 72 68 68 69 68 67 67 68 68 68 68 68 66 65 67 71 78 79 78 78 77 76 76 74
48 82 86 83 72 87 76 78 54 60 66 63 64 72 72 67 52 60 74 73 80 75 73 82 77 71 70 69 67 66 62 63 66 68 61 58 59 60 63 66 71 74 72 70 73 76 78 79 79 76 77 76 76 74
70 87 82 81 73 73 77 79 77 68 74 68 71 72 74 58 68 68 72 77 79 83 80 74 70 68 76 74 69 68 64 61 59 60 62 62 63 59 61 68 74 73 78 78 77 76 77 79 79 77 76 80 82 79
86 87 80 79 77 75 74 80 79 79 73 76 79 69 67 67 70 76 72 82 79 82 82 84 82 72 67 64 65 66 66 59 57 63 65 67 67 69 66 64 64 75 86 90 86 80 78 79 79 79 78 77 81 82
82 83 74 63 64 67 75 73 68 73 78 81 77 76 70 77 79 77 73 75 77 85 84 84 78 69 67 67 68 71 72 76 73 71 74 74 79 81 83 79 80 90 91 93 92 89 86 84 83 83 82 82 85 89
74 70 84 78 75 67 77 73 75 79 79 68 63 83 81 77 79 80 76 84 85 86 87 87 85 82 79 80 80 79 82 89 92 83 82 81 84 90 94 96 100 100 100 100 100 97 92 91 89 88 87 88 90 93
77 73 64 84 72 75 80 79 79 76 72 69 75 76 78 70 78 80 86 86 85 83 83 84 87 87 87 89 93 89 86 81 65 58 61 65 68 83 94 96 97 99 100 99 96 100 100 100 100 100 98 96 94 94
81 71 71 76 79 84 86 79 85 79 69 70 65 65 73 79 85 90 89 87 83 86 86 85 87 82 82 81 84 88 94 95 97 84 72 72 82 95 96 97 98 100 100 100 99 97 99 99 96 95 92 90 90 95
70 67 68 70 81 84 84 78 76 72 73 80 72 76 80 81 86 90 89 91 92 92 86 86 90 88 85 82 77 71 79 99 100 100 99 100 100 97 99 100 100 100 100 100 100 99 98 96 90 88 87 88 91 93
77 73 74 80 86 82 75 76 74 76 74 75 81 76 80 77 79 82 97 95 88 83 92 88 84 89 100 100 100 95 78 100 100 100 100 100 100 100 100 100 100 100 100 100 100 100 99 97 94 91 90 90 92 96
74 75 74 78 83 82 80 71 71 77 74 76 79 77 79 74 80 85 100 100 97 90 90 94 99 100 100 100 100 100 92 100 81 86 87 87 85 82 89 100 100 100 100 100 100 100 98 97 95 94 95 96 96 98

GFSWCAN_925_rhum_039.txt.gz
RH
89 85 86 89 96 96 87 89 89 91 96 94 94 95 97 99 91 96 89 96 89 97 88 67 58 55 49 52 66 58 62 61 72 80 84 87 94 78 61 59 80 88 95 98 99 92 82 54 34 35 38 32 29 27
81 90 99 98 90 90 94 84 88 87 98 99 95 92 96 100 100 95 96 95 78 95 96 65 60 50 41 40 50 56 52 56 72 73 76 81 80 76 50 58 59 91 75 90 87 89 64 47 54 58 50 44 38 24
96 100 90 90 86 88 89 88 91 95 90 98 81 79 96 100 99 97 88 96 94 89 95 97 81 65 59 52 56 85 63 62 85 80 86 77 67 74 80 73 68 51 59 73 59 52 56 48 53 52 66 56 45 30
100 88 94 87 92 89 96 90 90 91 99 94 99 99 100 98 98 97 84 90 79 87 100 96 73 63 59 52 57 58 62 58 77 78 78 94 87 58 83 59 68 65 62 66 68 53 51 45 56 64 66 59 53 46
91 96 91 96 92 95 92 94 91 87 88 84 87 94 99 94 99 84 77 90 83 90 97 95 71 57 56 45 64 60 75 78 90 88 95 79 76 76 75 72 66 49 65 79 86 58 60 48 55 57 52 71 58 50
90 90 89 95 94 89 91 91 92 93 99 97 93 92 97 98 80 93 100 94 87 74 84 100 67 62 48 49 75 76 84 80 93 93 92 74 54 73 82 74 50 36 42 36 44 42 38 37 41 40 43 44 45 44
93 90 87 92 89 86 92 99 99 98 93 96 91 92 93 87 79 90 91 85 72 85 84 89 88 81 71 55 64 77 76 85 92 91 94 79 71 71 92 86 86 80 67 54 60 58 55 55 56 51 47 47 49 44
99 96 94 90 84 88 89 90 87 91 94 99 94 98 92 84 78 83 82 76 75 65 75 91 97 89 88 86 81 76 84 85 93 96 92 85 70 81 98 89 84 81 78 74 69 62 60 54 53 53 50 52 53 55
100 100 100 100 100 90 79 96 98 99 100 99 91 81 85 85 92 76 62 58 55 66 90 94 93 99 94 92 85 83 86 94 79 97 94 89 98 98 98 94 94 90 90 83 72 70 66 71 68 58 62 68 67 74
99 100 100 90 99 100 100 98 93 90 82 72 70 90 98 85 61 52 53 75 77 80 84 96 90 100 97 99 100 93 97 94 98 88 86 95 99 100 96 92 87 89 86 79 88 94 88 86 81 91 88 84 82 82
100 100 100 99 95 97 93 92 88 84 78 83 95 98 82 76 79 86 87 84 76 89 89 87 94 99 96 100 100 95 97 96 88 86 85 98 94 93 76 91 94 88 90 94 80 84 86 89 92 94 94 92 91 89
98 97 95 94 91 91 91 87 82 89 93 86 83 81 79 82 92 84 96 90 89 90 92 96 96 95 99 96 99 99 90 98 96 96 91 96 96 91 87 88 88 89 88 89 88 93 92 92 93 94 95 95 94 96
100 98 97 94 96 88 84 90 89 78 82 79 83 96 98 99 96 92 78 91 98 99 100 100 100 100 99 99 100 98 99 99 98 96 96 96 91 87 90 88 90 91 90 88 90 89 89 91 93 91 92 96 94 95
92 88 82 78 76 73 71 71 75 72 72 92 94 93 93 93 97 98 98 98 99 99 98 99 100 100 100 100 100 98 100 99 97 96 95 96 96 96 95 95 90 95 95 94 95 94 94 94 95 95 96 96 94 95
78 77 78 79 73 76 65 75 62 52 72 88 84 97 96 98 95 98 97 99 99 99 98 99 100 100 100 98 99 98 96 96 95 96 96 96 96 96 96 96 96 95 95 94 94 94 94 94 92 95 96 97 96 96
73 70 86 81 73 74 74 51 61 64 81 82 89 93 92 93 92 94 95 97 94 98 99 100 99 98 98 95 89 97 86 95 96 96 97 95 95 96 96 96 96 95 94 94 94 94 93 93 94 96 96 96 97 96
85 92 87 68 64 67 74 76 88 92 90 88 98 95 98 95 98 98 97 94 96 99 98 97 94 97 91 93 93 94 96 96 96 96 95 96 96 96 95 94 94 93 94 94 92 92 96 95 85 84 90 97 97 98
93 92 76 85 88 83 75 94 93 81 92 96 96 96 94 97 95 96 97 90 93 91 88 94 82 92 98 95 96 96 95 95 95 95 95 95 95 95 95 94 95 94 94 94 93 93 93 90 90 94 96 97 95 95
99 85 85 84 83 72 95 98 75 91 97 97 87 89 95 94 92 92 92 82 76 72 81 80 88 94 96 96 95 96 95 94 94 94 94 95 96 95 95 95 94 94 94 94 93 94 94 96 96 97 97 92 94 98
95 85 78 73 70 83 96 97 72 88 96 96 88 91 91 95 92 78 75 72 67 70 85 92 95 95 95 95 95 94 94 94 91 91 93 93 94 91 95 93 94 90 87 87 90 86 86 90 92 80 86 97 97 96
84 72 68 70 71 92 98 99 98 95 97 96 84 91 95 76 79 79 75 61 76 89 93 94 94 95 94 95 94 90 94 90 94 90 91 92 95 92 91 88 84 83 85 87 87 90 96 96 92 98 81 69 78 92
72 65 69 62 80 81 88 77 89 87 88 84 81 83 89 87 84 77 65 79 92 94 92 91 94 91 91 92 94 94 94 92 90 91 91 86 89 88 89 85 82 86 90 93 91 93 90 85 88 80 86 96 84 82
67 64 72 79 84 83 87 70 81 76 85 85 86 86 92 93 81 72 92 89 95 90 90 90 93 93 93 90 84 89 84 77 79 79 79 81 82 82 86 89 93 91 92 89 93 92 83 92 82 76 70 78 81 88
56 91 96 98 88 100 87 86 82 82 82 84 82 86 92 91 81 89 92 93 95 94 94 91 77 77 73 72 78 77 75 76 83 92 76 75 78 79 78 84 86 92 96 94 79 86 83 77 84 86 71 73 88 85
77 87 89 90 90 84 86 84 84 84 89 84 86 91 90 86 90 93 92 96 95 96 95 92 86 83 90 90 82 81 68 68 75 79 78 90 93 86 88 89 84 91 86 87 96 83 86 77 82 94 87 75 86 90
93 86 88 84 90 86 87 88 84 85 87 91 92 83 90 90 91 98 93 97 97 98 96 94 89 85 80 75 84 85 84 72 72 81 82 82 89 93 91 96 97 100 94 96 94 97 92 90 88 89 91 98 86 86
93 94 84 75 88 87 90 88 86 90 93 95 89 87 87 93 100 97 96 88 97 98 97 89 80 81 83 84 82 77 62 69 74 80 82 82 84 81 76 81 86 99 98 82 86 96 99 100 99 100 90 90 94 92
85 84 95 91 88 83 89 91 94 96 96 91 89 95 98 97 99 97 98 95 90 84 84 87 91 92 95 96 96 96 99 88 82 87 90 92 89 92 96 99 100 96 98 100 98 93 89 84 92 93 90 86 96 96
92 89 84 90 86 91 93 95 97 92 82 92 95 97 98 97 91 93 93 89 84 84 90 92 86 77 78 78 77 72 73 81 69 84 88 100 99 99 97 92 98 97 87 98 93 97 99 100 88 100 99 95 92 100
92 89 88 89 93 98 97 97 95 94 86 85 89 82 89 95 95 82 89 95 95 96 93 94 97 95 97 96 98 95 76 56 82 94 100 100 99 99 100 88 93 99 85 95 100 89 98 97 80 83 91 99 99 92
90 89 84 89 96 96 94 88 79 80 86 90 87 90 98 99 87 96 94 82 77 78 83 88 96 95 90 84 94 98 100 97 78 71 90 98 100 100 99 92 100 100 99 100 93 88 94 100 100 87 89 90 99 100
92 89 91 95 98 97 96 96 95 96 97 95 96 96 98 98 100 95 93 97 97 90 95 97 95 100 85 75 69 74 88 100 100 94 93 87 93 82 63 62 94 100 100 98 93 100 97 99 100 100 100 100 93 92
84 84 90 96 98 99 96 95 89 96 94 94 95 95 96 97 100 99 90 94 99 97 98 93 93 91 88 98 95 84 94 93 90 85 83 79 71 63 61 66 77 82 82 82 89 98 100 100 100 100 100 100 100 100